Time,TemperatureF,DewpointF,PressureIn,WindDirection,WindDirectionDegrees,WindSpeedMPH,WindSpeedGustMPH,Humidity,HourlyPrecipIn,Conditions,Clouds,dailyrainin,SoftwareType,DateUTC
2013-04-01 00:01:00,50.0,49.5,29.92,North,4,0.0,0.0,98,0.00,,---,0.00,VWS V14.01,2013-04-01 05:01:00,
2013-04-01 00:04:00,50.0,49.5,29.92,North,4,0.0,0.0,98,0.00,,---,0.00,VWS V14.01,2013-04-01 05:04:00,
2013-04-01 00:06:00,49.9,49.4,29.92,North,4,0.0,0.0,98,0.00,,---,0.00,VWS V14.01,2013-04-01 05:06:00,
2013-04-01 00:07:00,50.0,49.5,29.93,North,5,0.0,0.0,98,0.00,,---,0.00,VWS V14.01,2013-04-01 05:07:00,
2013-04-01 00:09:00,50.1,49.6,29.93,North,4,0.0,0.0,98,0.00,,---,0.00,VWS V14.01,2013-04-01 05:09:00,
2013-04-01 00:11:00,50.3,49.8,29.93,North,4,0.0,0.0,98,0.00,,---,0.00,VWS V14.01,2013-04-01 05:11:00,
2013-04-01 00:12:00,50.3,49.8,29.93,North,4,0.0,0.0,98,0.00,,---,0.00,VWS V14.01,2013-04-01 05:12:00,
2013-04-01 00:14:00,50.3,49.8,29.93,North,4,0.0,0.0,98,0.00,,---,0.00,VWS V14.01,2013-04-01 05:14:00,
2013-04-01 00:16:00,50.4,49.9,29.93,North,4,0.0,0.0,98,0.00,,---,0.00,VWS V14.01,2013-04-01 05:16:00,
2013-04-01 00:17:00,50.4,49.9,29.93,North,4,0.0,0.0,98,0.00,,---,0.00,VWS V14.01,2013-04-01 05:17:00,
2013-04-01 00:19:00,50.4,49.9,29.93,North,4,0.0,0.0,98,0.00,,---,0.00,VWS V14.01,2013-04-01 05:19:00,
2013-04-01 00:21:00,50.5,50.0,29.93,North,4,0.0,0.0,98,0.00,,---,0.00,VWS V14.01,2013-04-01 05:21:00,
2013-04-01 00:22:00,50.5,50.0,29.93,North,3,0.0,0.0,98,0.00,,---,0.00,VWS V14.01,2013-04-01 05:22:00,
2013-04-01 00:24:00,50.5,50.0,29.93,North,4,0.0,0.0,98,0.00,,---,0.00,VWS V14.01,2013-04-01 05:24:00,
2013-04-01 00:26:00,50.5,50.0,29.93,North,4,0.0,0.0,98,0.00,,---,0.00,VWS V14.01,2013-04-01 05:26:00,
2013-04-01 00:27:00,50.5,50.0,29.93,North,4,0.0,0.0,98,0.00,,---,0.00,VWS V14.01,2013-04-01 05:27:00,
2013-04-01 00:28:00,50.5,50.0,29.93,North,4,0.0,0.0,98,0.00,,---,0.00,VWS V14.01,2013-04-01 05:28:00,
2013-04-01 00:29:00,50.4,49.9,29.93,North,4,0.0,0.0,98,0.00,,---,0.00,VWS V14.01,2013-04-01 05:29:00,
2013-04-01 00:32:00,50.4,49.9,29.93,North,4,0.0,0.0,98,0.00,,---,0.00,VWS V14.01,2013-04-01 05:32:00,
2013-04-01 00:33:00,50.4,49.9,29.93,North,4,0.0,0.0,98,0.00,,---,0.00,VWS V14.01,2013-04-01 05:33:00,
2013-04-01 00:34:00,50.4,49.9,29.93,North,4,0.0,0.0,98,0.00,,---,0.00,VWS V14.01,2013-04-01 05:34:00,
2013-04-01 00:37:00,50.3,49.8,29.93,North,4,0.0,0.0,98,0.00,,---,0.00,VWS V14.01,2013-04-01 05:37:00,
2013-04-01 00:38:00,50.2,49.7,29.93,North,4,0.0,0.0,98,0.00,,---,0.00,VWS V14.01,2013-04-01 05:38:00,
2013-04-01 00:40:00,50.2,49.7,29.93,North,4,0.0,0.0,98,0.00,,---,0.00,VWS V14.01,2013-04-01 05:40:00,
2013-04-01 00:42:00,50.1,49.6,29.93,North,4,0.0,0.0,98,0.00,,---,0.00,VWS V14.01,2013-04-01 05:42:00,
2013-04-01 00:44:00,50.0,49.5,29.93,North,4,0.0,0.0,98,0.00,,---,0.00,VWS V14.01,2013-04-01 05:44:00,
2013-04-01 00:45:00,49.9,49.4,29.93,North,4,0.0,0.0,98,0.00,,---,0.00,VWS V14.01,2013-04-01 05:45:00,
2013-04-01 00:47:00,49.7,49.2,29.93,North,4,0.0,0.0,98,0.00,,---,0.00,VWS V14.01,2013-04-01 05:47:00,
2013-04-01 00:49:00,49.6,49.1,29.94,North,4,0.0,0.0,98,0.00,,---,0.00,VWS V14.01,2013-04-01 05:49:00,
2013-04-01 00:50:00,49.6,49.1,29.94,North,4,0.0,0.0,98,0.00,,---,0.00,VWS V14.01,2013-04-01 05:50:00,
2013-04-01 00:52:00,49.5,49.0,29.94,North,4,0.0,0.0,98,0.00,,---,0.00,VWS V14.01,2013-04-01 05:52:00,
2013-04-01 00:54:00,49.4,48.9,29.94,North,5,0.0,0.0,98,0.00,,---,0.00,VWS V14.01,2013-04-01 05:54:00,
2013-04-01 00:55:00,49.3,48.8,29.94,North,4,0.0,0.0,98,0.00,,---,0.00,VWS V14.01,2013-04-01 05:55:00,
2013-04-01 00:57:00,49.2,48.7,29.94,North,5,0.0,0.0,98,0.00,,---,0.00,VWS V14.01,2013-04-01 05:57:00,
2013-04-01 00:59:00,49.2,48.7,29.94,North,4,0.0,0.0,98,0.00,,---,0.00,VWS V14.01,2013-04-01 05:59:00,
2013-04-01 01:00:00,49.1,49.0,29.94,North,4,0.0,0.0,98,0.00,,,0.00,weatherlink.com 1.10,2013-04-01 06:00:00,
2013-04-01 01:02:00,49.0,48.5,29.94,North,4,0.0,0.0,98,0.00,,---,0.00,VWS V14.01,2013-04-01 06:02:00,
2013-04-01 01:04:00,48.9,48.4,29.94,North,3,0.0,0.0,98,0.00,,---,0.00,VWS V14.01,2013-04-01 06:04:00,
2013-04-01 01:05:00,48.9,48.4,29.94,North,5,0.0,0.0,98,0.00,,---,0.00,VWS V14.01,2013-04-01 06:05:00,
2013-04-01 01:07:00,48.8,48.3,29.94,North,5,0.0,0.0,98,0.00,,---,0.00,VWS V14.01,2013-04-01 06:07:00,
2013-04-01 01:08:00,48.7,48.2,29.94,North,4,0.0,0.0,98,0.00,,---,0.00,VWS V14.01,2013-04-01 06:08:00,
2013-04-01 01:09:00,48.7,48.2,29.94,North,4,0.0,0.0,98,0.00,,---,0.00,VWS V14.01,2013-04-01 06:09:00,
2013-04-01 01:10:00,48.6,48.1,29.94,North,4,0.0,0.0,98,0.00,,---,0.00,VWS V14.01,2013-04-01 06:10:00,
2013-04-01 01:12:00,48.6,48.1,29.94,North,4,0.0,0.0,98,0.00,,---,0.00,VWS V14.01,2013-04-01 06:12:00,
2013-04-01 01:13:00,48.6,48.1,29.94,North,4,0.0,0.0,98,0.00,,---,0.00,VWS V14.01,2013-04-01 06:13:00,
2013-04-01 01:14:00,48.6,48.1,29.94,North,4,0.0,0.0,98,0.00,,---,0.00,VWS V14.01,2013-04-01 06:14:00,
2013-04-01 01:15:00,48.6,48.1,29.94,North,4,0.0,0.0,98,0.00,,---,0.00,VWS V14.01,2013-04-01 06:15:00,
2013-04-01 01:17:00,48.7,48.2,29.94,North,4,0.0,0.0,98,0.00,,---,0.00,VWS V14.01,2013-04-01 06:17:00,
2013-04-01 01:18:00,48.7,48.2,29.94,North,4,0.0,0.0,98,0.00,,---,0.00,VWS V14.01,2013-04-01 06:18:00,
2013-04-01 01:19:00,48.7,48.2,29.94,North,4,0.0,0.0,98,0.00,,---,0.00,VWS V14.01,2013-04-01 06:19:00,
2013-04-01 01:20:00,48.7,48.2,29.94,North,4,0.0,0.0,98,0.00,,---,0.00,VWS V14.01,2013-04-01 06:20:00,
2013-04-01 01:23:00,48.8,48.3,29.94,North,4,0.0,0.0,98,0.00,,---,0.00,VWS V14.01,2013-04-01 06:23:00,
2013-04-01 01:25:00,48.8,48.3,29.94,North,4,1.0,1.0,98,0.00,,---,0.00,VWS V14.01,2013-04-01 06:25:00,
2013-04-01 01:28:00,48.8,48.3,29.94,North,4,0.0,1.0,98,0.00,,---,0.00,VWS V14.01,2013-04-01 06:28:00,
2013-04-01 01:30:00,48.9,48.4,29.94,North,4,0.0,1.0,98,0.00,,---,0.00,VWS V14.01,2013-04-01 06:30:00,
2013-04-01 01:33:00,48.8,48.3,29.94,North,4,0.0,0.0,98,0.00,,---,0.00,VWS V14.01,2013-04-01 06:33:00,
2013-04-01 01:35:00,48.7,48.2,29.94,North,4,0.0,0.0,98,0.00,,---,0.00,VWS V14.01,2013-04-01 06:35:00,
2013-04-01 01:36:00,48.7,48.2,29.94,North,4,0.0,0.0,98,0.00,,---,0.00,VWS V14.01,2013-04-01 06:36:00,
2013-04-01 01:38:00,48.5,48.0,29.94,North,5,0.0,0.0,98,0.00,,---,0.00,VWS V14.01,2013-04-01 06:38:00,
2013-04-01 01:39:00,48.4,47.9,29.94,North,5,0.0,0.0,98,0.00,,---,0.00,VWS V14.01,2013-04-01 06:39:00,
2013-04-01 01:40:00,48.3,47.8,29.94,North,4,0.0,0.0,98,0.00,,---,0.00,VWS V14.01,2013-04-01 06:40:00,
2013-04-01 01:41:00,48.3,47.8,29.94,North,4,0.0,0.0,98,0.00,,---,0.00,VWS V14.01,2013-04-01 06:41:00,
2013-04-01 01:43:00,48.2,47.7,29.94,North,4,0.0,0.0,98,0.00,,---,0.00,VWS V14.01,2013-04-01 06:43:00,
2013-04-01 01:44:00,48.1,47.6,29.94,North,4,0.0,0.0,98,0.00,,---,0.00,VWS V14.01,2013-04-01 06:44:00,
2013-04-01 01:45:00,48.1,47.6,29.94,North,4,0.0,0.0,98,0.00,,---,0.00,VWS V14.01,2013-04-01 06:45:00,
2013-04-01 01:46:00,48.0,47.5,29.94,North,4,0.0,0.0,98,0.00,,---,0.00,VWS V14.01,2013-04-01 06:46:00,
2013-04-01 01:48:00,47.9,47.4,29.94,North,4,0.0,0.0,98,0.00,,---,0.00,VWS V14.01,2013-04-01 06:48:00,
2013-04-01 01:49:00,47.9,47.4,29.94,North,4,0.0,0.0,98,0.00,,---,0.00,VWS V14.01,2013-04-01 06:49:00,
2013-04-01 01:50:00,47.9,47.4,29.94,North,4,0.0,0.0,98,0.00,,---,0.00,VWS V14.01,2013-04-01 06:50:00,
2013-04-01 01:51:00,47.8,47.0,29.94,North,4,0.0,0.0,98,0.00,,,0.00,weatherlink.com 1.10,2013-04-01 06:51:00,
2013-04-01 01:53:00,47.9,47.4,29.94,North,4,0.0,0.0,98,0.00,,---,0.00,VWS V14.01,2013-04-01 06:53:00,
2013-04-01 01:54:00,47.9,47.4,29.94,North,4,0.0,0.0,98,0.00,,---,0.00,VWS V14.01,2013-04-01 06:54:00,
2013-04-01 01:55:00,47.8,47.3,29.94,North,4,0.0,0.0,98,0.00,,---,0.00,VWS V14.01,2013-04-01 06:55:00,
2013-04-01 01:56:00,47.8,47.3,29.94,North,5,0.0,0.0,98,0.00,,---,0.00,VWS V14.01,2013-04-01 06:56:00,
2013-04-01 01:58:00,47.8,47.3,29.94,North,4,0.0,0.0,98,0.00,,---,0.00,VWS V14.01,2013-04-01 06:58:00,
2013-04-01 01:59:00,47.7,47.2,29.94,North,4,0.0,0.0,98,0.00,,---,0.00,VWS V14.01,2013-04-01 06:59:00,
2013-04-01 02:00:00,47.7,47.2,29.94,North,4,0.0,0.0,98,0.00,,---,0.00,VWS V14.01,2013-04-01 07:00:00,
2013-04-01 02:01:00,47.7,47.2,29.94,North,4,0.0,0.0,98,0.00,,---,0.00,VWS V14.01,2013-04-01 07:01:00,
2013-04-01 02:03:00,47.9,47.4,29.94,North,4,0.0,0.0,98,0.00,,---,0.00,VWS V14.01,2013-04-01 07:03:00,
2013-04-01 02:04:00,47.9,47.4,29.94,North,4,0.0,0.0,98,0.00,,---,0.00,VWS V14.01,2013-04-01 07:04:00,
2013-04-01 02:06:00,47.9,47.4,29.94,North,4,0.0,0.0,98,0.00,,---,0.00,VWS V14.01,2013-04-01 07:06:00,
2013-04-01 02:08:00,47.8,47.3,29.94,North,4,0.0,0.0,98,0.00,,---,0.00,VWS V14.01,2013-04-01 07:08:00,
2013-04-01 02:09:00,47.7,47.2,29.94,North,4,0.0,0.0,98,0.00,,---,0.00,VWS V14.01,2013-04-01 07:09:00,
2013-04-01 02:11:00,47.7,47.2,29.93,North,4,0.0,0.0,98,0.00,,---,0.00,VWS V14.01,2013-04-01 07:11:00,
2013-04-01 02:13:00,47.7,47.2,29.94,North,4,0.0,0.0,98,0.00,,---,0.00,VWS V14.01,2013-04-01 07:13:00,
2013-04-01 02:14:00,47.7,47.2,29.94,North,4,0.0,0.0,98,0.00,,---,0.00,VWS V14.01,2013-04-01 07:14:00,
2013-04-01 02:16:00,47.7,47.2,29.94,North,4,0.0,0.0,98,0.00,,---,0.00,VWS V14.01,2013-04-01 07:16:00,
2013-04-01 02:17:00,47.7,47.2,29.94,North,4,0.0,0.0,98,0.00,,---,0.00,VWS V14.01,2013-04-01 07:17:00,
2013-04-01 02:18:00,47.6,47.1,29.93,North,4,0.0,0.0,98,0.00,,---,0.00,VWS V14.01,2013-04-01 07:18:00,
2013-04-01 02:19:00,47.5,47.0,29.93,North,4,0.0,0.0,98,0.00,,---,0.00,VWS V14.01,2013-04-01 07:19:00,
2013-04-01 02:21:00,47.4,46.9,29.93,North,5,0.0,0.0,98,0.00,,---,0.00,VWS V14.01,2013-04-01 07:21:00,
2013-04-01 02:22:00,47.4,46.9,29.93,North,4,0.0,0.0,98,0.00,,---,0.00,VWS V14.01,2013-04-01 07:22:00,
2013-04-01 02:23:00,47.3,46.8,29.93,North,4,0.0,0.0,98,0.00,,---,0.00,VWS V14.01,2013-04-01 07:23:00,
2013-04-01 02:24:00,47.2,46.7,29.94,North,5,0.0,0.0,98,0.00,,---,0.00,VWS V14.01,2013-04-01 07:24:00,
2013-04-01 02:26:00,47.1,46.6,29.94,North,4,0.0,0.0,98,0.00,,---,0.00,VWS V14.01,2013-04-01 07:26:00,
2013-04-01 02:27:00,47.0,46.5,29.94,North,4,0.0,0.0,98,0.00,,---,0.00,VWS V14.01,2013-04-01 07:27:00,
2013-04-01 02:28:00,46.9,46.4,29.94,North,4,0.0,0.0,98,0.00,,---,0.00,VWS V14.01,2013-04-01 07:28:00,
2013-04-01 02:29:00,46.9,46.4,29.94,North,4,0.0,0.0,98,0.00,,---,0.00,VWS V14.01,2013-04-01 07:29:00,
2013-04-01 02:31:00,46.8,46.3,29.94,North,4,0.0,0.0,98,0.00,,---,0.00,VWS V14.01,2013-04-01 07:31:00,
2013-04-01 02:32:00,46.7,46.2,29.94,North,4,0.0,0.0,98,0.00,,---,0.00,VWS V14.01,2013-04-01 07:32:00,
2013-04-01 02:34:00,46.7,46.2,29.94,North,4,0.0,0.0,98,0.00,,---,0.00,VWS V14.01,2013-04-01 07:34:00,
2013-04-01 02:36:00,46.6,46.1,29.94,North,4,0.0,0.0,98,0.00,,---,0.00,VWS V14.01,2013-04-01 07:36:00,
2013-04-01 02:37:00,46.6,46.1,29.94,North,4,0.0,0.0,98,0.00,,---,0.00,VWS V14.01,2013-04-01 07:37:00,
2013-04-01 02:39:00,46.6,46.1,29.94,North,4,0.0,0.0,98,0.00,,---,0.00,VWS V14.01,2013-04-01 07:39:00,
2013-04-01 02:40:00,46.6,46.1,29.94,North,4,0.0,0.0,98,0.00,,---,0.00,VWS V14.01,2013-04-01 07:40:00,
2013-04-01 02:41:00,46.6,46.1,29.94,NNW,344,0.0,0.0,98,0.00,,---,0.00,VWS V14.01,2013-04-01 07:41:00,
2013-04-01 02:43:00,46.6,46.1,29.94,NNW,343,0.0,0.0,98,0.00,,---,0.00,VWS V14.01,2013-04-01 07:43:00,
2013-04-01 02:44:00,46.6,46.1,29.94,NNW,344,0.0,0.0,98,0.00,,---,0.00,VWS V14.01,2013-04-01 07:44:00,
2013-04-01 02:45:00,46.6,46.1,29.94,NNW,343,0.0,0.0,98,0.00,,---,0.00,VWS V14.01,2013-04-01 07:45:00,
2013-04-01 02:47:00,46.5,46.0,29.94,NNW,343,0.0,0.0,98,0.00,,---,0.00,VWS V14.01,2013-04-01 07:47:00,
2013-04-01 02:48:00,46.5,46.0,29.94,NNW,343,0.0,0.0,98,0.00,,---,0.00,VWS V14.01,2013-04-01 07:48:00,
2013-04-01 02:49:00,46.4,45.9,29.94,NNW,344,0.0,0.0,98,0.00,,---,0.00,VWS V14.01,2013-04-01 07:49:00,
2013-04-01 02:50:00,46.4,45.9,29.94,NNW,343,0.0,0.0,98,0.00,,---,0.00,VWS V14.01,2013-04-01 07:50:00,
2013-04-01 02:52:00,46.2,45.7,29.94,NNW,344,0.0,0.0,98,0.00,,---,0.00,VWS V14.01,2013-04-01 07:52:00,
2013-04-01 02:53:00,46.2,45.7,29.94,NNW,344,0.0,0.0,98,0.00,,---,0.00,VWS V14.01,2013-04-01 07:53:00,
2013-04-01 02:54:00,46.2,45.7,29.94,NNW,343,0.0,0.0,98,0.00,,---,0.00,VWS V14.01,2013-04-01 07:54:00,
2013-04-01 02:55:00,46.2,45.7,29.94,NNW,343,0.0,0.0,98,0.00,,---,0.00,VWS V14.01,2013-04-01 07:55:00,
2013-04-01 02:58:00,46.3,45.8,29.94,NNW,344,0.0,0.0,98,0.00,,---,0.00,VWS V14.01,2013-04-01 07:58:00,
2013-04-01 03:00:00,46.2,45.7,29.94,NNW,343,0.0,0.0,98,0.00,,---,0.00,VWS V14.01,2013-04-01 08:00:00,
2013-04-01 03:03:00,46.2,45.7,29.94,NNW,344,0.0,0.0,98,0.00,,---,0.00,VWS V14.01,2013-04-01 08:03:00,
2013-04-01 03:05:00,46.2,45.7,29.94,NNW,344,0.0,0.0,98,0.00,,---,0.00,VWS V14.01,2013-04-01 08:05:00,
2013-04-01 03:08:00,46.2,45.7,29.94,NNW,344,0.0,0.0,98,0.00,,---,0.00,VWS V14.01,2013-04-01 08:08:00,
2013-04-01 03:10:00,46.1,45.6,29.94,NNW,343,0.0,0.0,98,0.00,,---,0.00,VWS V14.01,2013-04-01 08:10:00,
2013-04-01 03:13:00,46.3,45.8,29.94,NNW,343,0.0,0.0,98,0.00,,---,0.00,VWS V14.01,2013-04-01 08:13:00,
2013-04-01 03:15:00,46.2,45.7,29.94,NNW,343,0.0,0.0,98,0.00,,---,0.00,VWS V14.01,2013-04-01 08:15:00,
2013-04-01 03:18:00,46.1,45.6,29.94,NNW,343,0.0,0.0,98,0.00,,---,0.00,VWS V14.01,2013-04-01 08:18:00,
2013-04-01 03:20:00,46.1,45.6,29.94,NNW,343,0.0,0.0,98,0.00,,---,0.00,VWS V14.01,2013-04-01 08:20:00,
2013-04-01 03:23:00,45.9,45.4,29.94,NNW,344,0.0,0.0,98,0.00,,---,0.00,VWS V14.01,2013-04-01 08:23:00,
2013-04-01 03:25:00,45.8,45.3,29.94,NNW,343,0.0,0.0,98,0.00,,---,0.00,VWS V14.01,2013-04-01 08:25:00,
2013-04-01 03:28:00,45.7,45.2,29.94,NNW,344,0.0,0.0,98,0.00,,---,0.00,VWS V14.01,2013-04-01 08:28:00,
2013-04-01 03:30:00,45.6,45.1,29.95,NNW,343,0.0,0.0,98,0.00,,---,0.00,VWS V14.01,2013-04-01 08:30:00,
2013-04-01 03:31:00,45.6,45.1,29.95,NNW,343,0.0,0.0,98,0.00,,---,0.00,VWS V14.01,2013-04-01 08:31:00,
2013-04-01 03:33:00,45.6,45.1,29.94,NNW,344,0.0,0.0,98,0.00,,---,0.00,VWS V14.01,2013-04-01 08:33:00,
2013-04-01 03:35:00,45.6,45.1,29.95,NNW,343,0.0,0.0,98,0.00,,---,0.00,VWS V14.01,2013-04-01 08:35:00,
2013-04-01 03:37:00,45.6,45.1,29.95,NNW,344,0.0,0.0,98,0.00,,---,0.00,VWS V14.01,2013-04-01 08:37:00,
2013-04-01 03:38:00,45.6,45.1,29.95,NNW,343,0.0,0.0,98,0.00,,---,0.00,VWS V14.01,2013-04-01 08:38:00,
2013-04-01 03:41:00,45.7,45.2,29.95,NNW,344,0.0,0.0,98,0.00,,---,0.00,VWS V14.01,2013-04-01 08:41:00,
2013-04-01 03:42:00,45.7,45.2,29.95,NNW,343,0.0,0.0,98,0.00,,---,0.00,VWS V14.01,2013-04-01 08:42:00,
2013-04-01 03:43:00,45.7,45.2,29.95,NNW,343,0.0,0.0,98,0.00,,---,0.00,VWS V14.01,2013-04-01 08:43:00,
2013-04-01 03:44:00,45.8,45.3,29.95,NNW,344,0.0,0.0,98,0.00,,---,0.00,VWS V14.01,2013-04-01 08:44:00,
2013-04-01 03:46:00,45.7,45.2,29.95,NNW,344,0.0,0.0,98,0.00,,---,0.00,VWS V14.01,2013-04-01 08:46:00,
2013-04-01 03:47:00,45.7,45.2,29.95,NNW,344,0.0,0.0,98,0.00,,---,0.00,VWS V14.01,2013-04-01 08:47:00,
2013-04-01 03:48:00,45.7,45.4,29.95,NNW,344,0.0,0.0,99,0.00,,---,0.00,VWS V14.01,2013-04-01 08:48:00,
2013-04-01 03:49:00,45.7,45.4,29.95,NNW,344,0.0,0.0,99,0.00,,---,0.00,VWS V14.01,2013-04-01 08:49:00,
2013-04-01 03:52:00,45.7,45.4,29.95,NNW,343,0.0,0.0,99,0.00,,---,0.00,VWS V14.01,2013-04-01 08:52:00,
2013-04-01 03:53:00,45.6,45.3,29.95,NNW,344,0.0,0.0,99,0.00,,---,0.00,VWS V14.01,2013-04-01 08:53:00,
2013-04-01 03:54:00,45.6,45.3,29.95,NNW,344,0.0,0.0,99,0.00,,---,0.00,VWS V14.01,2013-04-01 08:54:00,
2013-04-01 03:57:00,45.5,45.2,29.95,NNW,343,0.0,0.0,99,0.00,,---,0.00,VWS V14.01,2013-04-01 08:57:00,
2013-04-01 03:58:00,45.5,45.2,29.95,NNW,344,0.0,0.0,99,0.00,,---,0.00,VWS V14.01,2013-04-01 08:58:00,
2013-04-01 03:59:00,45.4,45.1,29.95,NNW,343,0.0,0.0,99,0.00,,---,0.00,VWS V14.01,2013-04-01 08:59:00,
2013-04-01 04:02:00,45.3,44.8,29.95,NNW,343,0.0,0.0,98,0.00,,---,0.00,VWS V14.01,2013-04-01 09:02:00,
2013-04-01 04:03:00,45.3,44.8,29.95,NNW,344,0.0,0.0,98,0.00,,---,0.00,VWS V14.01,2013-04-01 09:03:00,
2013-04-01 04:04:00,45.3,44.8,29.95,NNW,343,0.0,0.0,98,0.00,,---,0.00,VWS V14.01,2013-04-01 09:04:00,
2013-04-01 04:07:00,45.2,44.7,29.95,NNW,343,0.0,0.0,98,0.00,,---,0.00,VWS V14.01,2013-04-01 09:07:00,
2013-04-01 04:08:00,45.2,44.7,29.95,NNW,343,0.0,0.0,98,0.00,,---,0.00,VWS V14.01,2013-04-01 09:08:00,
2013-04-01 04:09:00,45.1,44.6,29.95,NNW,343,0.0,0.0,98,0.00,,---,0.00,VWS V14.01,2013-04-01 09:09:00,
2013-04-01 04:12:00,45.1,44.6,29.95,NNW,344,0.0,0.0,98,0.00,,---,0.00,VWS V14.01,2013-04-01 09:12:00,
2013-04-01 04:13:00,45.1,44.6,29.95,NNW,343,0.0,0.0,98,0.00,,---,0.00,VWS V14.01,2013-04-01 09:13:00,
2013-04-01 04:14:00,45.1,44.6,29.95,NNW,343,0.0,0.0,98,0.00,,---,0.00,VWS V14.01,2013-04-01 09:14:00,
2013-04-01 04:17:00,45.0,44.5,29.95,NNW,344,0.0,0.0,98,0.00,,---,0.00,VWS V14.01,2013-04-01 09:17:00,
2013-04-01 04:18:00,44.9,44.4,29.95,NNW,344,0.0,0.0,98,0.00,,---,0.00,VWS V14.01,2013-04-01 09:18:00,
2013-04-01 04:19:00,44.9,44.4,29.95,NNW,344,0.0,0.0,98,0.00,,---,0.00,VWS V14.01,2013-04-01 09:19:00,
2013-04-01 04:22:00,44.8,44.3,29.95,NNW,340,0.0,0.0,98,0.00,,---,0.00,VWS V14.01,2013-04-01 09:22:00,
2013-04-01 04:23:00,44.8,44.3,29.95,NNW,340,0.0,0.0,98,0.00,,---,0.00,VWS V14.01,2013-04-01 09:23:00,
2013-04-01 04:24:00,44.8,44.3,29.95,NNW,340,0.0,0.0,98,0.00,,---,0.00,VWS V14.01,2013-04-01 09:24:00,
2013-04-01 04:27:00,44.8,44.3,29.95,NNW,340,0.0,0.0,98,0.00,,---,0.00,VWS V14.01,2013-04-01 09:27:00,
2013-04-01 04:28:00,44.8,44.3,29.95,NNW,340,0.0,0.0,98,0.00,,---,0.00,VWS V14.01,2013-04-01 09:28:00,
2013-04-01 04:29:00,44.8,44.3,29.95,NNW,340,0.0,0.0,98,0.00,,---,0.00,VWS V14.01,2013-04-01 09:29:00,
2013-04-01 04:32:00,44.7,44.2,29.95,NNW,340,0.0,0.0,98,0.00,,---,0.00,VWS V14.01,2013-04-01 09:32:00,
2013-04-01 04:33:00,44.7,44.2,29.95,NNW,340,0.0,0.0,98,0.00,,---,0.00,VWS V14.01,2013-04-01 09:33:00,
2013-04-01 04:34:00,44.7,44.2,29.95,NNW,340,0.0,0.0,98,0.00,,---,0.00,VWS V14.01,2013-04-01 09:34:00,
2013-04-01 04:35:00,44.7,44.2,29.95,NNW,340,0.0,0.0,98,0.00,,---,0.00,VWS V14.01,2013-04-01 09:35:00,
2013-04-01 04:37:00,44.7,44.2,29.95,NNW,340,0.0,0.0,98,0.00,,---,0.00,VWS V14.01,2013-04-01 09:37:00,
2013-04-01 04:38:00,44.6,44.1,29.95,NNW,340,0.0,0.0,98,0.00,,---,0.00,VWS V14.01,2013-04-01 09:38:00,
2013-04-01 04:40:00,44.6,44.1,29.95,NNW,340,0.0,0.0,98,0.00,,---,0.00,VWS V14.01,2013-04-01 09:40:00,
2013-04-01 04:42:00,44.6,44.1,29.95,NNW,340,0.0,0.0,98,0.00,,---,0.00,VWS V14.01,2013-04-01 09:42:00,
2013-04-01 04:43:00,44.6,44.1,29.95,NNW,340,0.0,0.0,98,0.00,,---,0.00,VWS V14.01,2013-04-01 09:43:00,
2013-04-01 04:45:00,44.5,44.0,29.95,NNW,340,0.0,0.0,98,0.00,,---,0.00,VWS V14.01,2013-04-01 09:45:00,
2013-04-01 04:48:00,44.4,43.9,29.96,NNW,340,0.0,0.0,98,0.00,,---,0.00,VWS V14.01,2013-04-01 09:48:00,
2013-04-01 04:50:00,44.4,43.9,29.96,NNW,341,0.0,0.0,98,0.00,,---,0.00,VWS V14.01,2013-04-01 09:50:00,
2013-04-01 04:53:00,44.3,43.8,29.96,NNW,340,0.0,0.0,98,0.00,,---,0.00,VWS V14.01,2013-04-01 09:53:00,
2013-04-01 04:55:00,44.3,43.8,29.96,NNW,340,0.0,0.0,98,0.00,,---,0.00,VWS V14.01,2013-04-01 09:55:00,
2013-04-01 04:58:00,44.3,43.8,29.96,NNW,341,0.0,0.0,98,0.00,,---,0.00,VWS V14.01,2013-04-01 09:58:00,
2013-04-01 05:00:00,44.3,43.8,29.96,NNW,341,0.0,0.0,98,0.00,,---,0.00,VWS V14.01,2013-04-01 10:00:00,
2013-04-01 05:03:00,44.3,44.0,29.96,NNW,340,0.0,0.0,99,0.00,,---,0.00,VWS V14.01,2013-04-01 10:03:00,
2013-04-01 05:05:00,44.3,44.0,29.96,NNW,340,0.0,0.0,99,0.00,,---,0.00,VWS V14.01,2013-04-01 10:05:00,
2013-04-01 05:08:00,44.4,44.1,29.96,NNW,340,0.0,0.0,99,0.00,,---,0.00,VWS V14.01,2013-04-01 10:08:00,
2013-04-01 05:09:00,44.4,44.1,29.96,NNW,341,0.0,0.0,99,0.00,,---,0.00,VWS V14.01,2013-04-01 10:09:00,
2013-04-01 05:11:00,44.5,44.2,29.96,NNW,340,0.0,0.0,99,0.00,,---,0.00,VWS V14.01,2013-04-01 10:11:00,
2013-04-01 05:13:00,44.5,44.2,29.96,NNW,340,0.0,0.0,99,0.00,,---,0.00,VWS V14.01,2013-04-01 10:13:00,
2013-04-01 05:14:00,44.5,44.2,29.96,NNW,340,0.0,0.0,99,0.00,,---,0.00,VWS V14.01,2013-04-01 10:14:00,
2013-04-01 05:16:00,44.5,44.2,29.96,NNW,340,0.0,0.0,99,0.00,,---,0.00,VWS V14.01,2013-04-01 10:16:00,
2013-04-01 05:17:00,44.4,44.1,29.96,NNW,340,0.0,0.0,99,0.00,,---,0.00,VWS V14.01,2013-04-01 10:17:00,
2013-04-01 05:18:00,44.4,44.1,29.96,NNW,340,0.0,0.0,99,0.00,,---,0.00,VWS V14.01,2013-04-01 10:18:00,
2013-04-01 05:19:00,44.4,44.1,29.96,NNW,340,0.0,0.0,99,0.00,,---,0.00,VWS V14.01,2013-04-01 10:19:00,
2013-04-01 05:21:00,44.4,44.1,29.96,NNW,340,0.0,0.0,99,0.00,,---,0.00,VWS V14.01,2013-04-01 10:21:00,
2013-04-01 05:23:00,44.3,44.0,29.96,NNW,341,0.0,0.0,99,0.00,,---,0.00,VWS V14.01,2013-04-01 10:23:00,
2013-04-01 05:24:00,44.3,44.0,29.97,NNW,340,0.0,0.0,99,0.00,,---,0.00,VWS V14.01,2013-04-01 10:24:00,
2013-04-01 05:26:00,44.2,43.9,29.97,NNW,340,0.0,0.0,99,0.00,,---,0.00,VWS V14.01,2013-04-01 10:26:00,
2013-04-01 05:28:00,44.1,43.8,29.97,NNW,340,0.0,0.0,99,0.00,,---,0.00,VWS V14.01,2013-04-01 10:28:00,
2013-04-01 05:29:00,44.1,43.8,29.97,NNW,340,0.0,0.0,99,0.00,,---,0.00,VWS V14.01,2013-04-01 10:29:00,
2013-04-01 05:30:00,44.2,43.9,29.97,NNW,340,0.0,0.0,99,0.00,,---,0.00,VWS V14.01,2013-04-01 10:30:00,
2013-04-01 05:32:00,44.2,43.9,29.97,NNW,340,0.0,0.0,99,0.00,,---,0.00,VWS V14.01,2013-04-01 10:32:00,
2013-04-01 05:33:00,44.1,43.8,29.97,NNW,340,0.0,0.0,99,0.00,,---,0.00,VWS V14.01,2013-04-01 10:33:00,
2013-04-01 05:34:00,44.1,43.8,29.97,NNW,340,0.0,0.0,99,0.00,,---,0.00,VWS V14.01,2013-04-01 10:34:00,
2013-04-01 05:35:00,44.0,43.7,29.97,NNW,340,0.0,0.0,99,0.00,,---,0.00,VWS V14.01,2013-04-01 10:35:00,
2013-04-01 05:37:00,43.9,43.6,29.97,NNW,340,0.0,0.0,99,0.00,,---,0.00,VWS V14.01,2013-04-01 10:37:00,
2013-04-01 05:39:00,43.8,43.5,29.97,NNW,341,0.0,0.0,99,0.00,,---,0.00,VWS V14.01,2013-04-01 10:39:00,
2013-04-01 05:40:00,43.7,43.4,29.97,NNW,340,0.0,0.0,99,0.00,,---,0.00,VWS V14.01,2013-04-01 10:40:00,
2013-04-01 05:42:00,43.7,43.4,29.97,NNW,341,0.0,0.0,99,0.00,,---,0.00,VWS V14.01,2013-04-01 10:42:00,
2013-04-01 05:44:00,43.7,43.4,29.97,NNW,341,0.0,0.0,99,0.00,,---,0.00,VWS V14.01,2013-04-01 10:44:00,
2013-04-01 05:45:00,43.7,43.4,29.97,NNW,340,0.0,0.0,99,0.00,,---,0.00,VWS V14.01,2013-04-01 10:45:00,
2013-04-01 05:47:00,43.7,43.4,29.97,NNW,340,0.0,0.0,99,0.00,,---,0.00,VWS V14.01,2013-04-01 10:47:00,
2013-04-01 05:49:00,43.7,43.4,29.97,NNW,340,0.0,0.0,99,0.00,,---,0.00,VWS V14.01,2013-04-01 10:49:00,
2013-04-01 05:50:00,43.7,43.4,29.97,NNW,340,0.0,0.0,99,0.00,,---,0.00,VWS V14.01,2013-04-01 10:50:00,
2013-04-01 05:52:00,43.7,43.4,29.97,NNW,340,0.0,0.0,99,0.00,,---,0.00,VWS V14.01,2013-04-01 10:52:00,
2013-04-01 05:54:00,43.8,43.5,29.97,NNW,340,0.0,0.0,99,0.00,,---,0.00,VWS V14.01,2013-04-01 10:54:00,
2013-04-01 05:55:00,43.8,43.5,29.98,NNW,340,0.0,0.0,99,0.00,,---,0.00,VWS V14.01,2013-04-01 10:55:00,
2013-04-01 05:58:00,43.7,43.4,29.98,NNW,340,0.0,0.0,99,0.00,,---,0.00,VWS V14.01,2013-04-01 10:58:00,
2013-04-01 05:59:00,43.7,43.4,29.98,NNW,340,0.0,0.0,99,0.00,,---,0.00,VWS V14.01,2013-04-01 10:59:00,
2013-04-01 06:00:00,43.7,43.4,29.98,NNW,340,0.0,0.0,99,0.00,,---,0.00,VWS V14.01,2013-04-01 11:00:00,
2013-04-01 06:03:00,43.7,43.4,29.98,WNW,302,0.0,0.0,99,0.00,,---,0.00,VWS V14.01,2013-04-01 11:03:00,
2013-04-01 06:04:00,43.7,43.4,29.98,WNW,302,0.0,0.0,99,0.00,,---,0.00,VWS V14.01,2013-04-01 11:04:00,
2013-04-01 06:05:00,43.7,43.4,29.98,WNW,302,0.0,0.0,99,0.00,,---,0.00,VWS V14.01,2013-04-01 11:05:00,
2013-04-01 06:08:00,43.7,43.4,29.98,WNW,302,0.0,0.0,99,0.00,,---,0.00,VWS V14.01,2013-04-01 11:08:00,
2013-04-01 06:09:00,43.7,43.4,29.99,WNW,302,0.0,0.0,99,0.00,,---,0.00,VWS V14.01,2013-04-01 11:09:00,
2013-04-01 06:10:00,43.7,43.4,29.99,WNW,302,0.0,0.0,99,0.00,,---,0.00,VWS V14.01,2013-04-01 11:10:00,
2013-04-01 06:13:00,43.6,43.3,29.99,WNW,302,0.0,0.0,99,0.00,,---,0.00,VWS V14.01,2013-04-01 11:13:00,
2013-04-01 06:14:00,43.6,43.3,29.99,WNW,302,0.0,0.0,99,0.00,,---,0.00,VWS V14.01,2013-04-01 11:14:00,
2013-04-01 06:15:00,43.6,43.3,29.99,WNW,302,0.0,0.0,99,0.00,,---,0.00,VWS V14.01,2013-04-01 11:15:00,
2013-04-01 06:16:00,43.5,43.2,29.99,WNW,302,0.0,0.0,99,0.00,,---,0.00,VWS V14.01,2013-04-01 11:16:00,
2013-04-01 06:19:00,43.4,43.1,29.99,WNW,302,0.0,0.0,99,0.00,,---,0.00,VWS V14.01,2013-04-01 11:19:00,
2013-04-01 06:20:00,43.3,43.0,29.99,WNW,303,0.0,0.0,99,0.00,,---,0.00,VWS V14.01,2013-04-01 11:20:00,
2013-04-01 06:21:00,43.3,43.0,29.99,WNW,302,0.0,0.0,99,0.00,,---,0.00,VWS V14.01,2013-04-01 11:21:00,
2013-04-01 06:24:00,43.2,42.9,29.99,WNW,302,0.0,0.0,99,0.00,,---,0.00,VWS V14.01,2013-04-01 11:24:00,
2013-04-01 06:25:00,43.1,42.8,29.99,WNW,302,0.0,0.0,99,0.00,,---,0.00,VWS V14.01,2013-04-01 11:25:00,
2013-04-01 06:26:00,43.0,42.7,29.99,WNW,302,0.0,0.0,99,0.00,,---,0.00,VWS V14.01,2013-04-01 11:26:00,
2013-04-01 06:29:00,42.9,42.6,30.00,WNW,302,0.0,0.0,99,0.00,,---,0.00,VWS V14.01,2013-04-01 11:29:00,
2013-04-01 06:30:00,42.8,42.5,30.00,WNW,303,0.0,0.0,99,0.00,,---,0.00,VWS V14.01,2013-04-01 11:30:00,
2013-04-01 06:32:00,42.8,42.5,30.00,WNW,303,0.0,0.0,99,0.00,,---,0.00,VWS V14.01,2013-04-01 11:32:00,
2013-04-01 06:34:00,42.7,42.4,30.00,WNW,302,0.0,0.0,99,0.00,,---,0.00,VWS V14.01,2013-04-01 11:34:00,
2013-04-01 06:35:00,42.7,42.4,30.00,WNW,303,0.0,0.0,99,0.00,,---,0.00,VWS V14.01,2013-04-01 11:35:00,
2013-04-01 06:37:00,42.7,42.4,30.00,WNW,302,0.0,0.0,99,0.00,,---,0.00,VWS V14.01,2013-04-01 11:37:00,
2013-04-01 06:39:00,42.6,42.3,30.00,WNW,302,0.0,0.0,99,0.00,,---,0.00,VWS V14.01,2013-04-01 11:39:00,
2013-04-01 06:40:00,42.6,42.3,30.00,WNW,302,0.0,0.0,99,0.00,,---,0.00,VWS V14.01,2013-04-01 11:40:00,
2013-04-01 06:41:00,42.6,42.3,30.00,WNW,302,0.0,0.0,99,0.00,,---,0.00,VWS V14.01,2013-04-01 11:41:00,
2013-04-01 06:42:00,42.5,42.2,30.00,WNW,302,0.0,0.0,99,0.00,,---,0.00,VWS V14.01,2013-04-01 11:42:00,
2013-04-01 06:44:00,42.5,42.2,30.00,WNW,302,0.0,0.0,99,0.00,,---,0.00,VWS V14.01,2013-04-01 11:44:00,
2013-04-01 06:45:00,42.5,42.2,30.00,WNW,302,0.0,0.0,99,0.00,,---,0.00,VWS V14.01,2013-04-01 11:45:00,
2013-04-01 06:46:00,42.5,42.2,30.00,WNW,302,0.0,0.0,99,0.00,,---,0.00,VWS V14.01,2013-04-01 11:46:00,
2013-04-01 06:47:00,42.5,42.2,30.00,WNW,303,0.0,0.0,99,0.00,,---,0.00,VWS V14.01,2013-04-01 11:47:00,
2013-04-01 06:49:00,42.5,42.2,30.00,WNW,303,0.0,0.0,99,0.00,,---,0.00,VWS V14.01,2013-04-01 11:49:00,
2013-04-01 06:50:00,42.5,42.2,30.00,WNW,302,0.0,0.0,99,0.00,,---,0.00,VWS V14.01,2013-04-01 11:50:00,
2013-04-01 06:51:00,42.5,42.2,30.01,WNW,302,0.0,0.0,99,0.00,,---,0.00,VWS V14.01,2013-04-01 11:51:00,
2013-04-01 06:52:00,42.5,42.2,30.01,WNW,302,0.0,0.0,99,0.00,,---,0.00,VWS V14.01,2013-04-01 11:52:00,
2013-04-01 06:54:00,42.5,42.2,30.01,WNW,303,0.0,0.0,99,0.01,,---,0.01,VWS V14.01,2013-04-01 11:54:00,
2013-04-01 06:55:00,42.5,42.2,30.01,WNW,302,0.0,0.0,99,0.01,,---,0.01,VWS V14.01,2013-04-01 11:55:00,
2013-04-01 06:57:00,42.5,42.2,30.01,WNW,302,0.0,0.0,99,0.01,,---,0.01,VWS V14.01,2013-04-01 11:57:00,
2013-04-01 06:59:00,42.6,42.3,30.01,WNW,302,0.0,0.0,99,0.01,,---,0.01,VWS V14.01,2013-04-01 11:59:00,
2013-04-01 07:00:00,42.6,42.3,30.01,WNW,302,0.0,0.0,99,0.01,,---,0.01,VWS V14.01,2013-04-01 12:00:00,
2013-04-01 07:02:00,42.6,42.3,30.01,WNW,303,0.0,0.0,99,0.01,,---,0.01,VWS V14.01,2013-04-01 12:02:00,
2013-04-01 07:04:00,42.5,42.2,30.01,WNW,302,0.0,0.0,99,0.01,,---,0.01,VWS V14.01,2013-04-01 12:04:00,
2013-04-01 07:05:00,42.6,42.3,30.01,WNW,303,0.0,0.0,99,0.01,,---,0.01,VWS V14.01,2013-04-01 12:05:00,
2013-04-01 07:07:00,42.5,42.2,30.01,WNW,303,0.0,0.0,99,0.01,,---,0.01,VWS V14.01,2013-04-01 12:07:00,
2013-04-01 07:08:00,42.6,42.3,30.01,WNW,303,0.0,0.0,99,0.01,,---,0.01,VWS V14.01,2013-04-01 12:08:00,
2013-04-01 07:09:00,42.6,42.3,30.01,WNW,302,0.0,0.0,99,0.01,,---,0.01,VWS V14.01,2013-04-01 12:09:00,
2013-04-01 07:10:00,42.6,42.3,30.01,WNW,303,0.0,0.0,99,0.01,,---,0.01,VWS V14.01,2013-04-01 12:10:00,
2013-04-01 07:12:00,42.6,42.3,30.01,WNW,302,0.0,0.0,99,0.01,,---,0.01,VWS V14.01,2013-04-01 12:12:00,
2013-04-01 07:13:00,42.6,42.3,30.02,WNW,302,0.0,0.0,99,0.01,,---,0.01,VWS V14.01,2013-04-01 12:13:00,
2013-04-01 07:15:00,42.5,42.2,30.02,WNW,302,0.0,0.0,99,0.01,,---,0.01,VWS V14.01,2013-04-01 12:15:00,
2013-04-01 07:16:00,42.5,42.2,30.02,WNW,302,0.0,0.0,99,0.01,,---,0.01,VWS V14.01,2013-04-01 12:16:00,
2013-04-01 07:17:00,42.6,42.3,30.02,WNW,302,0.0,0.0,99,0.01,,---,0.01,VWS V14.01,2013-04-01 12:17:00,
2013-04-01 07:18:00,42.6,42.3,30.02,WNW,302,0.0,0.0,99,0.01,,---,0.01,VWS V14.01,2013-04-01 12:18:00,
2013-04-01 07:20:00,42.6,42.3,30.02,WNW,303,0.0,0.0,99,0.01,,---,0.01,VWS V14.01,2013-04-01 12:20:00,
2013-04-01 07:21:00,42.6,42.3,30.02,WNW,302,0.0,0.0,99,0.01,,---,0.01,VWS V14.01,2013-04-01 12:21:00,
2013-04-01 07:23:00,42.6,42.3,30.02,WNW,303,0.0,0.0,99,0.01,,---,0.01,VWS V14.01,2013-04-01 12:23:00,
2013-04-01 07:25:00,42.6,42.3,30.02,WNW,302,0.0,0.0,99,0.01,,---,0.01,VWS V14.01,2013-04-01 12:25:00,
2013-04-01 07:26:00,42.6,42.3,30.02,WNW,302,0.0,0.0,99,0.01,,---,0.01,VWS V14.01,2013-04-01 12:26:00,
2013-04-01 07:28:00,42.7,42.4,30.02,WNW,302,0.0,0.0,99,0.01,,---,0.01,VWS V14.01,2013-04-01 12:28:00,
2013-04-01 07:29:00,42.7,42.4,30.02,WNW,302,0.0,0.0,99,0.01,,---,0.01,VWS V14.01,2013-04-01 12:29:00,
2013-04-01 07:30:00,42.8,42.5,30.02,WNW,302,0.0,0.0,99,0.01,,---,0.01,VWS V14.01,2013-04-01 12:30:00,
2013-04-01 07:32:00,42.9,42.6,30.02,WNW,303,0.0,0.0,99,0.01,,---,0.01,VWS V14.01,2013-04-01 12:32:00,
2013-04-01 07:33:00,43.0,42.7,30.03,WNW,303,0.0,0.0,99,0.01,,---,0.01,VWS V14.01,2013-04-01 12:33:00,
2013-04-01 07:34:00,43.1,42.8,30.03,WNW,302,0.0,0.0,99,0.01,,---,0.01,VWS V14.01,2013-04-01 12:34:00,
2013-04-01 07:35:00,43.2,42.9,30.03,WNW,302,0.0,0.0,99,0.01,,---,0.01,VWS V14.01,2013-04-01 12:35:00,
2013-04-01 07:37:00,43.5,43.2,30.03,WNW,302,0.0,0.0,99,0.01,,---,0.01,VWS V14.01,2013-04-01 12:37:00,
2013-04-01 07:38:00,43.6,43.3,30.03,WNW,303,0.0,0.0,99,0.01,,---,0.01,VWS V14.01,2013-04-01 12:38:00,
2013-04-01 07:39:00,43.7,43.4,30.03,WNW,303,0.0,0.0,99,0.01,,---,0.01,VWS V14.01,2013-04-01 12:39:00,
2013-04-01 07:40:00,43.9,43.6,30.03,WNW,302,0.0,0.0,99,0.01,,---,0.01,VWS V14.01,2013-04-01 12:40:00,
2013-04-01 07:42:00,44.1,43.8,30.03,WNW,302,0.0,0.0,99,0.01,,---,0.01,VWS V14.01,2013-04-01 12:42:00,
2013-04-01 07:43:00,44.2,43.9,30.03,WNW,303,0.0,0.0,99,0.01,,---,0.01,VWS V14.01,2013-04-01 12:43:00,
2013-04-01 07:44:00,44.3,44.0,30.03,WNW,302,0.0,0.0,99,0.01,,---,0.01,VWS V14.01,2013-04-01 12:44:00,
2013-04-01 07:45:00,44.4,44.1,30.03,WNW,302,0.0,0.0,99,0.01,,---,0.01,VWS V14.01,2013-04-01 12:45:00,
2013-04-01 07:47:00,44.5,44.2,30.02,WNW,303,0.0,0.0,99,0.01,,---,0.01,VWS V14.01,2013-04-01 12:47:00,
2013-04-01 07:48:00,44.5,44.2,30.03,WNW,303,0.0,0.0,99,0.01,,---,0.01,VWS V14.01,2013-04-01 12:48:00,
2013-04-01 07:49:00,44.8,44.5,30.03,WNW,302,0.0,0.0,99,0.01,,---,0.01,VWS V14.01,2013-04-01 12:49:00,
2013-04-01 07:50:00,45.0,44.7,30.03,WNW,302,0.0,0.0,99,0.01,,---,0.01,VWS V14.01,2013-04-01 12:50:00,
2013-04-01 07:52:00,45.2,44.9,30.03,WNW,302,0.0,0.0,99,0.01,,---,0.01,VWS V14.01,2013-04-01 12:52:00,
2013-04-01 07:53:00,45.3,45.0,30.03,WNW,303,0.0,0.0,99,0.01,,---,0.01,VWS V14.01,2013-04-01 12:53:00,
2013-04-01 07:54:00,45.4,45.1,30.03,WNW,302,0.0,0.0,99,0.01,,---,0.01,VWS V14.01,2013-04-01 12:54:00,
2013-04-01 07:55:00,45.6,45.3,30.03,WNW,302,0.0,0.0,99,0.01,,---,0.01,VWS V14.01,2013-04-01 12:55:00,
2013-04-01 07:58:00,45.8,45.5,30.03,WNW,302,0.0,0.0,99,0.01,,---,0.01,VWS V14.01,2013-04-01 12:58:00,
2013-04-01 07:59:00,45.9,45.6,30.03,WNW,302,0.0,0.0,99,0.01,,---,0.01,VWS V14.01,2013-04-01 12:59:00,
2013-04-01 08:01:00,46.1,45.8,30.03,WNW,302,0.0,0.0,99,0.00,,---,0.01,VWS V14.01,2013-04-01 13:01:00,
2013-04-01 08:03:00,46.2,45.9,30.03,WNW,302,0.0,0.0,99,0.00,,---,0.01,VWS V14.01,2013-04-01 13:03:00,
2013-04-01 08:04:00,46.3,46.0,30.03,WNW,302,0.0,0.0,99,0.00,,---,0.01,VWS V14.01,2013-04-01 13:04:00,
2013-04-01 08:06:00,46.5,46.2,30.03,WNW,302,0.0,0.0,99,0.00,,---,0.01,VWS V14.01,2013-04-01 13:06:00,
2013-04-01 08:08:00,46.8,46.8,30.03,WNW,303,0.0,0.0,100,0.00,,---,0.01,VWS V14.01,2013-04-01 13:08:00,
2013-04-01 08:09:00,46.9,46.9,30.03,WNW,302,0.0,0.0,100,0.00,,---,0.01,VWS V14.01,2013-04-01 13:09:00,
2013-04-01 08:11:00,47.0,47.0,30.03,WNW,302,0.0,0.0,100,0.00,,---,0.01,VWS V14.01,2013-04-01 13:11:00,
2013-04-01 08:13:00,47.2,47.2,30.03,WNW,302,0.0,0.0,100,0.00,,---,0.01,VWS V14.01,2013-04-01 13:13:00,
2013-04-01 08:14:00,47.4,47.4,30.04,WNW,302,0.0,0.0,100,0.00,,---,0.01,VWS V14.01,2013-04-01 13:14:00,
2013-04-01 08:16:00,47.6,47.6,30.04,WNW,302,0.0,0.0,100,0.00,,---,0.01,VWS V14.01,2013-04-01 13:16:00,
2013-04-01 08:18:00,48.0,48.0,30.04,WNW,302,0.0,0.0,100,0.00,,---,0.01,VWS V14.01,2013-04-01 13:18:00,
2013-04-01 08:19:00,48.1,48.1,30.04,WNW,302,0.0,0.0,100,0.00,,---,0.01,VWS V14.01,2013-04-01 13:19:00,
2013-04-01 08:21:00,48.4,48.4,30.04,WNW,302,0.0,0.0,100,0.00,,---,0.01,VWS V14.01,2013-04-01 13:21:00,
2013-04-01 08:23:00,48.7,48.7,30.04,WNW,303,0.0,0.0,100,0.00,,---,0.01,VWS V14.01,2013-04-01 13:23:00,
2013-04-01 08:24:00,48.8,48.8,30.04,WNW,302,0.0,0.0,100,0.00,,---,0.01,VWS V14.01,2013-04-01 13:24:00,
2013-04-01 08:26:00,49.2,49.2,30.05,WNW,302,0.0,0.0,100,0.00,,---,0.01,VWS V14.01,2013-04-01 13:26:00,
2013-04-01 08:28:00,49.4,49.4,30.05,WNW,302,0.0,0.0,100,0.00,,---,0.01,VWS V14.01,2013-04-01 13:28:00,
2013-04-01 08:29:00,49.5,49.5,30.05,WNW,302,0.0,0.0,100,0.00,,---,0.01,VWS V14.01,2013-04-01 13:29:00,
2013-04-01 08:31:00,49.8,49.8,30.05,NE,51,0.0,2.0,100,0.00,,---,0.01,VWS V14.01,2013-04-01 13:31:00,
2013-04-01 08:33:00,50.0,50.0,30.05,North,349,1.0,4.0,100,0.00,,---,0.01,VWS V14.01,2013-04-01 13:33:00,
2013-04-01 08:34:00,50.0,50.0,30.05,North,349,1.0,4.0,100,0.00,,---,0.01,VWS V14.01,2013-04-01 13:34:00,
2013-04-01 08:37:00,50.2,50.2,30.05,NNW,340,1.0,5.0,100,0.00,,---,0.01,VWS V14.01,2013-04-01 13:37:00,
2013-04-01 08:38:00,50.3,50.3,30.05,NNW,347,1.0,5.0,100,0.00,,---,0.01,VWS V14.01,2013-04-01 13:38:00,
2013-04-01 08:39:00,50.3,50.3,30.05,NNE,15,3.0,5.0,100,0.00,,---,0.01,VWS V14.01,2013-04-01 13:39:00,
2013-04-01 08:42:00,50.4,50.4,30.05,North,349,0.0,5.0,100,0.00,,---,0.01,VWS V14.01,2013-04-01 13:42:00,
2013-04-01 08:43:00,50.5,50.5,30.05,North,356,1.0,5.0,100,0.00,,---,0.01,VWS V14.01,2013-04-01 13:43:00,
2013-04-01 08:44:00,50.5,50.5,30.05,NE,55,1.0,5.0,100,0.00,,---,0.01,VWS V14.01,2013-04-01 13:44:00,
2013-04-01 08:45:00,50.6,50.6,30.05,ENE,58,2.0,6.0,100,0.00,,---,0.01,VWS V14.01,2013-04-01 13:45:00,
2013-04-01 08:47:00,50.8,50.8,30.05,North,352,1.0,7.0,100,0.00,,---,0.01,VWS V14.01,2013-04-01 13:47:00,
2013-04-01 08:48:00,51.0,51.0,30.05,NNE,31,1.0,7.0,100,0.00,,---,0.01,VWS V14.01,2013-04-01 13:48:00,
2013-04-01 08:49:00,51.0,51.0,30.05,NNE,31,1.0,7.0,100,0.00,,---,0.01,VWS V14.01,2013-04-01 13:49:00,
2013-04-01 08:50:00,51.1,51.1,30.05,ENE,70,3.0,7.0,100,0.00,,---,0.01,VWS V14.01,2013-04-01 13:50:00,
2013-04-01 08:52:00,51.3,51.3,30.05,North,8,3.0,7.0,100,0.00,,---,0.01,VWS V14.01,2013-04-01 13:52:00,
2013-04-01 08:53:00,51.3,51.3,30.06,ENE,72,4.0,11.0,100,0.00,,---,0.01,VWS V14.01,2013-04-01 13:53:00,
2013-04-01 08:54:00,51.3,51.3,30.06,NNE,27,3.0,11.0,100,0.00,,---,0.01,VWS V14.01,2013-04-01 13:54:00,
2013-04-01 08:55:00,51.3,51.3,30.05,NNE,18,3.0,11.0,100,0.00,,---,0.01,VWS V14.01,2013-04-01 13:55:00,
2013-04-01 08:57:00,51.5,51.5,30.05,NNE,17,1.0,11.0,100,0.00,,---,0.01,VWS V14.01,2013-04-01 13:57:00,
2013-04-01 08:59:00,51.7,51.7,30.05,ENE,74,4.0,11.0,100,0.00,,---,0.01,VWS V14.01,2013-04-01 13:59:00,
2013-04-01 09:00:00,51.8,51.8,30.05,ENE,60,5.0,11.0,100,0.00,,---,0.01,VWS V14.01,2013-04-01 14:00:00,
2013-04-01 09:03:00,52.1,52.1,30.05,NNE,22,3.0,5.0,100,0.00,,---,0.01,VWS V14.01,2013-04-01 14:03:00,
2013-04-01 09:04:00,52.3,52.3,30.05,ENE,76,2.0,7.0,100,0.00,,---,0.01,VWS V14.01,2013-04-01 14:04:00,
2013-04-01 09:06:00,52.7,52.4,30.05,NE,51,2.0,7.0,99,0.00,,---,0.01,VWS V14.01,2013-04-01 14:06:00,
2013-04-01 09:08:00,53.0,51.6,30.06,NW,326,2.0,8.0,95,0.00,,---,0.01,VWS V14.01,2013-04-01 14:08:00,
2013-04-01 09:09:00,53.2,50.3,30.05,North,7,2.0,8.0,90,0.00,,---,0.01,VWS V14.01,2013-04-01 14:09:00,
2013-04-01 09:10:00,53.3,49.8,30.05,NE,53,4.0,8.0,88,0.00,,---,0.01,VWS V14.01,2013-04-01 14:10:00,
2013-04-01 09:11:00,53.4,49.9,30.06,ENE,60,4.0,8.0,88,0.00,,---,0.01,VWS V14.01,2013-04-01 14:11:00,
2013-04-01 09:13:00,53.6,49.5,30.06,North,11,3.0,8.0,86,0.00,,---,0.01,VWS V14.01,2013-04-01 14:13:00,
2013-04-01 09:14:00,53.7,49.6,30.06,NW,311,4.0,10.0,86,0.00,,---,0.01,VWS V14.01,2013-04-01 14:14:00,
2013-04-01 09:15:00,53.7,49.3,30.06,NE,48,2.0,10.0,85,0.00,,---,0.01,VWS V14.01,2013-04-01 14:15:00,
2013-04-01 09:17:00,53.8,49.1,30.06,NE,55,2.0,10.0,84,0.00,,---,0.01,VWS V14.01,2013-04-01 14:17:00,
2013-04-01 09:18:00,53.9,49.5,30.06,East,80,6.0,10.0,85,0.00,,---,0.01,VWS V14.01,2013-04-01 14:18:00,
2013-04-01 09:19:00,53.9,49.2,30.06,ENE,58,4.0,10.0,84,0.00,,---,0.01,VWS V14.01,2013-04-01 14:19:00,
2013-04-01 09:20:00,53.9,49.2,30.06,ENE,60,7.0,10.0,84,0.00,,---,0.01,VWS V14.01,2013-04-01 14:20:00,
2013-04-01 09:22:00,54.0,49.0,30.06,ENE,67,3.0,10.0,83,0.00,,---,0.01,VWS V14.01,2013-04-01 14:22:00,
2013-04-01 09:23:00,54.1,49.1,30.06,ENE,77,3.0,10.0,83,0.00,,---,0.01,VWS V14.01,2013-04-01 14:23:00,
2013-04-01 09:24:00,54.2,49.2,30.06,North,11,3.0,10.0,83,0.00,,---,0.01,VWS V14.01,2013-04-01 14:24:00,
2013-04-01 09:25:00,54.2,49.2,30.06,NE,38,3.0,10.0,83,0.00,,---,0.01,VWS V14.01,2013-04-01 14:25:00,
2013-04-01 09:27:00,54.3,49.3,30.06,East,89,6.0,10.0,83,0.00,,---,0.01,VWS V14.01,2013-04-01 14:27:00,
2013-04-01 09:28:00,54.3,48.9,30.06,East,84,3.0,10.0,82,0.00,,---,0.01,VWS V14.01,2013-04-01 14:28:00,
2013-04-01 09:30:00,54.5,49.1,30.06,East,82,2.0,10.0,82,0.00,,---,0.01,VWS V14.01,2013-04-01 14:30:00,
2013-04-01 09:32:00,54.6,49.2,30.06,NE,50,3.0,9.0,82,0.00,,---,0.01,VWS V14.01,2013-04-01 14:32:00,
2013-04-01 09:33:00,54.6,48.9,30.06,ENE,62,3.0,9.0,81,0.00,,---,0.01,VWS V14.01,2013-04-01 14:33:00,
2013-04-01 09:35:00,54.7,49.0,30.06,NE,53,3.0,9.0,81,0.00,,---,0.01,VWS V14.01,2013-04-01 14:35:00,
2013-04-01 09:37:00,54.8,49.1,30.06,NNE,27,4.0,9.0,81,0.00,,---,0.01,VWS V14.01,2013-04-01 14:37:00,
2013-04-01 09:38:00,54.8,49.1,30.06,NNE,27,9.0,9.0,81,0.00,,---,0.01,VWS V14.01,2013-04-01 14:38:00,
2013-04-01 09:40:00,54.9,49.2,30.06,ENE,70,2.0,9.0,81,0.00,,---,0.01,VWS V14.01,2013-04-01 14:40:00,
2013-04-01 09:43:00,55.1,48.7,30.06,ENE,77,5.0,10.0,79,0.00,,---,0.01,VWS V14.01,2013-04-01 14:43:00,
2013-04-01 09:45:00,55.2,48.8,30.06,ESE,114,2.0,10.0,79,0.00,,---,0.01,VWS V14.01,2013-04-01 14:45:00,
2013-04-01 09:46:00,55.2,48.8,30.06,NNE,21,3.0,9.0,79,0.00,,---,0.01,VWS V14.01,2013-04-01 14:46:00,
2013-04-01 09:48:00,55.3,48.9,30.06,NNE,27,2.0,9.0,79,0.00,,---,0.01,VWS V14.01,2013-04-01 14:48:00,
2013-04-01 09:50:00,55.4,48.7,30.06,NNE,25,1.0,9.0,78,0.00,,---,0.01,VWS V14.01,2013-04-01 14:50:00,
2013-04-01 09:51:00,55.4,49.0,30.06,ENE,70,4.0,9.0,79,0.00,,---,0.01,VWS V14.01,2013-04-01 14:51:00,
2013-04-01 09:53:00,55.5,48.8,30.06,ENE,66,3.0,9.0,78,0.00,,---,0.01,VWS V14.01,2013-04-01 14:53:00,
2013-04-01 09:54:00,55.5,48.8,30.06,NE,37,1.0,9.0,78,0.00,,---,0.01,VWS V14.01,2013-04-01 14:54:00,
2013-04-01 09:55:00,55.6,48.9,30.06,ENE,62,3.0,9.0,78,0.00,,---,0.01,VWS V14.01,2013-04-01 14:55:00,
2013-04-01 09:56:00,55.6,48.5,30.06,ESE,118,5.0,9.0,77,0.00,,---,0.01,VWS V14.01,2013-04-01 14:56:00,
2013-04-01 09:58:00,55.7,48.6,30.06,ENE,58,2.0,9.0,77,0.00,,---,0.01,VWS V14.01,2013-04-01 14:58:00,
2013-04-01 09:59:00,55.7,48.6,30.06,ENE,69,4.0,9.0,77,0.00,,---,0.01,VWS V14.01,2013-04-01 14:59:00,
2013-04-01 10:00:00,55.8,48.4,30.06,NNE,15,3.0,9.0,76,0.00,,---,0.01,VWS V14.01,2013-04-01 15:00:00,
2013-04-01 10:01:00,55.8,48.4,30.06,NE,45,3.0,8.0,76,0.00,,---,0.01,VWS V14.01,2013-04-01 15:01:00,
2013-04-01 10:03:00,55.9,48.5,30.06,SE,142,1.0,8.0,76,0.00,,---,0.01,VWS V14.01,2013-04-01 15:03:00,
2013-04-01 10:04:00,55.9,48.5,30.06,East,81,6.0,8.0,76,0.00,,---,0.01,VWS V14.01,2013-04-01 15:04:00,
2013-04-01 10:05:00,55.9,48.1,30.06,East,82,4.0,9.0,75,0.00,,---,0.01,VWS V14.01,2013-04-01 15:05:00,
2013-04-01 10:06:00,56.0,48.9,30.06,ENE,58,3.0,9.0,77,0.00,,---,0.01,VWS V14.01,2013-04-01 15:06:00,
2013-04-01 10:09:00,56.1,48.7,30.06,ENE,60,7.0,9.0,76,0.00,,---,0.01,VWS V14.01,2013-04-01 15:09:00,
2013-04-01 10:10:00,56.3,48.8,30.06,North,11,3.0,9.0,76,0.00,,---,0.01,VWS V14.01,2013-04-01 15:10:00,
2013-04-01 10:12:00,56.5,48.3,30.06,North,11,2.0,9.0,74,0.00,,---,0.01,VWS V14.01,2013-04-01 15:12:00,
2013-04-01 10:14:00,56.6,48.4,30.06,ENE,73,7.0,9.0,74,0.00,,---,0.01,VWS V14.01,2013-04-01 15:14:00,
2013-04-01 10:15:00,56.6,48.1,30.07,NE,38,2.0,9.0,73,0.00,,---,0.01,VWS V14.01,2013-04-01 15:15:00,
2013-04-01 10:17:00,56.7,48.5,30.07,North,4,2.0,2.0,74,0.00,,---,0.01,VWS V14.01,2013-04-01 15:17:00,
2013-04-01 10:19:00,56.9,48.3,30.07,ESE,119,3.0,6.0,73,0.00,,---,0.01,VWS V14.01,2013-04-01 15:19:00,
2013-04-01 10:20:00,56.9,48.3,30.07,North,8,1.0,6.0,73,0.00,,---,0.01,VWS V14.01,2013-04-01 15:20:00,
2013-04-01 10:22:00,57.1,48.5,30.07,East,82,4.0,7.0,73,0.00,,---,0.01,VWS V14.01,2013-04-01 15:22:00,
2013-04-01 10:24:00,57.2,48.3,30.07,East,84,3.0,7.0,72,0.00,,---,0.01,VWS V14.01,2013-04-01 15:24:00,
2013-04-01 10:25:00,57.4,48.8,30.07,ESE,119,1.0,7.0,73,0.00,,---,0.01,VWS V14.01,2013-04-01 15:25:00,
2013-04-01 10:27:00,57.5,48.9,30.07,East,87,4.0,8.0,73,0.00,,---,0.01,VWS V14.01,2013-04-01 15:27:00,
2013-04-01 10:29:00,57.8,48.8,30.07,North,4,2.0,8.0,72,0.00,,---,0.01,VWS V14.01,2013-04-01 15:29:00,
2013-04-01 10:30:00,57.9,49.3,30.07,NE,52,2.0,4.0,73,0.00,,---,0.01,VWS V14.01,2013-04-01 15:30:00,
2013-04-01 10:32:00,58.0,49.0,30.07,North,6,2.0,4.0,72,0.00,,---,0.01,VWS V14.01,2013-04-01 15:32:00,
2013-04-01 10:34:00,58.1,49.1,30.07,North,7,1.0,4.0,72,0.00,,---,0.01,VWS V14.01,2013-04-01 15:34:00,
2013-04-01 10:35:00,58.2,49.2,30.07,ENE,59,5.0,12.0,72,0.00,,---,0.01,VWS V14.01,2013-04-01 15:35:00,
2013-04-01 10:37:00,58.1,48.4,30.07,ENE,63,3.0,12.0,70,0.00,,---,0.01,VWS V14.01,2013-04-01 15:37:00,
2013-04-01 10:39:00,58.0,48.7,30.07,ENE,70,4.0,12.0,71,0.00,,---,0.01,VWS V14.01,2013-04-01 15:39:00,
2013-04-01 10:40:00,58.1,49.1,30.07,ENE,65,3.0,12.0,72,0.00,,---,0.01,VWS V14.01,2013-04-01 15:40:00,
2013-04-01 10:43:00,58.5,49.1,30.07,ENE,67,5.0,12.0,71,0.00,,---,0.01,VWS V14.01,2013-04-01 15:43:00,
2013-04-01 10:44:00,58.6,48.9,30.07,East,80,2.0,12.0,70,0.00,,---,0.01,VWS V14.01,2013-04-01 15:44:00,
2013-04-01 10:46:00,58.8,49.0,30.07,NNW,335,2.0,4.0,70,0.00,,---,0.01,VWS V14.01,2013-04-01 15:46:00,
2013-04-01 10:48:00,58.8,48.7,30.07,NE,49,2.0,6.0,69,0.00,,---,0.01,VWS V14.01,2013-04-01 15:48:00,
2013-04-01 10:49:00,58.8,48.7,30.07,North,6,2.0,6.0,69,0.00,,---,0.01,VWS V14.01,2013-04-01 15:49:00,
2013-04-01 10:50:00,58.8,48.7,30.07,NE,37,2.0,6.0,69,0.00,,---,0.01,VWS V14.01,2013-04-01 15:50:00,
2013-04-01 10:51:00,58.9,48.8,30.07,NE,41,2.0,6.0,69,0.00,,---,0.01,VWS V14.01,2013-04-01 15:51:00,
2013-04-01 10:53:00,59.0,49.2,30.07,East,89,2.0,6.0,70,0.00,,---,0.01,VWS V14.01,2013-04-01 15:53:00,
2013-04-01 10:54:00,59.1,49.0,30.07,NE,34,2.0,6.0,69,0.00,,---,0.01,VWS V14.01,2013-04-01 15:54:00,
2013-04-01 10:55:00,59.2,49.8,30.07,North,7,2.0,6.0,71,0.00,,---,0.01,VWS V14.01,2013-04-01 15:55:00,
2013-04-01 10:56:00,59.3,49.5,30.07,SE,127,2.0,6.0,70,0.00,,---,0.01,VWS V14.01,2013-04-01 15:56:00,
2013-04-01 10:58:00,59.6,49.4,30.07,East,84,3.0,6.0,69,0.00,,---,0.01,VWS V14.01,2013-04-01 15:58:00,
2013-04-01 10:59:00,59.8,50.0,30.07,North,354,1.0,6.0,70,0.00,,---,0.01,VWS V14.01,2013-04-01 15:59:00,
2013-04-01 11:00:00,59.8,49.6,30.07,NE,41,2.0,6.0,69,0.00,,---,0.01,VWS V14.01,2013-04-01 16:00:00,
2013-04-01 11:01:00,60.0,49.4,30.08,NE,46,2.0,3.0,68,0.00,,---,0.01,VWS V14.01,2013-04-01 16:01:00,
2013-04-01 11:03:00,60.1,49.1,30.08,ENE,65,7.0,7.0,67,0.00,,---,0.01,VWS V14.01,2013-04-01 16:03:00,
2013-04-01 11:05:00,60.0,48.6,30.08,NE,37,2.0,7.0,66,0.00,,---,0.01,VWS V14.01,2013-04-01 16:05:00,
2013-04-01 11:07:00,59.9,48.9,30.07,SE,143,2.0,7.0,67,0.00,,---,0.01,VWS V14.01,2013-04-01 16:07:00,
2013-04-01 11:09:00,59.9,49.3,30.08,East,94,3.0,7.0,68,0.00,,---,0.01,VWS V14.01,2013-04-01 16:09:00,
2013-04-01 11:10:00,59.8,48.4,30.08,ENE,77,1.0,7.0,66,0.00,,---,0.01,VWS V14.01,2013-04-01 16:10:00,
2013-04-01 11:12:00,59.9,49.3,30.08,ENE,62,2.0,7.0,68,0.00,,---,0.01,VWS V14.01,2013-04-01 16:12:00,
2013-04-01 11:14:00,60.1,49.1,30.08,ESE,105,0.0,7.0,67,0.00,,---,0.01,VWS V14.01,2013-04-01 16:14:00,
2013-04-01 11:15:00,60.2,49.2,30.08,SSE,166,1.0,7.0,67,0.00,,---,0.01,VWS V14.01,2013-04-01 16:15:00,
2013-04-01 11:18:00,60.5,48.7,30.08,ESE,103,1.0,4.0,65,0.00,,---,0.01,VWS V14.01,2013-04-01 16:18:00,
2013-04-01 11:19:00,60.5,49.1,30.08,ENE,77,2.0,4.0,66,0.00,,---,0.01,VWS V14.01,2013-04-01 16:19:00,
2013-04-01 11:20:00,60.6,49.6,30.08,NNE,15,1.0,4.0,67,0.00,,---,0.01,VWS V14.01,2013-04-01 16:20:00,
2013-04-01 11:23:00,61.0,49.2,30.08,NW,321,3.0,4.0,65,0.00,,---,0.01,VWS V14.01,2013-04-01 16:23:00,
2013-04-01 11:24:00,61.1,50.1,30.08,NE,34,3.0,4.0,67,0.00,,---,0.01,VWS V14.01,2013-04-01 16:24:00,
2013-04-01 11:25:00,61.3,49.5,30.08,ENE,69,3.0,4.0,65,0.00,,---,0.01,VWS V14.01,2013-04-01 16:25:00,
2013-04-01 11:28:00,61.1,48.4,30.08,East,88,3.0,5.0,63,0.00,,---,0.01,VWS V14.01,2013-04-01 16:28:00,
2013-04-01 11:29:00,61.0,48.8,30.08,NNE,14,1.0,5.0,64,0.00,,---,0.01,VWS V14.01,2013-04-01 16:29:00,
2013-04-01 11:30:00,61.0,49.2,30.08,NNW,343,2.0,5.0,65,0.00,,---,0.01,VWS V14.01,2013-04-01 16:30:00,
2013-04-01 11:31:00,61.1,49.3,30.08,NW,326,1.0,3.0,65,0.00,,---,0.01,VWS V14.01,2013-04-01 16:31:00,
2013-04-01 11:33:00,61.4,49.5,30.08,NW,305,2.0,3.0,65,0.00,,---,0.01,VWS V14.01,2013-04-01 16:33:00,
2013-04-01 11:34:00,61.5,49.6,30.08,NNE,19,3.0,3.0,65,0.00,,---,0.01,VWS V14.01,2013-04-01 16:34:00,
2013-04-01 11:35:00,61.6,49.3,30.08,NNE,27,1.0,5.0,64,0.00,,---,0.01,VWS V14.01,2013-04-01 16:35:00,
2013-04-01 11:37:00,61.7,49.4,30.08,West,281,1.0,5.0,64,0.00,,---,0.01,VWS V14.01,2013-04-01 16:37:00,
2013-04-01 11:38:00,62.0,49.7,30.08,NW,324,2.0,5.0,64,0.00,,---,0.01,VWS V14.01,2013-04-01 16:38:00,
2013-04-01 11:39:00,62.1,49.8,30.08,North,6,1.0,5.0,64,0.00,,---,0.01,VWS V14.01,2013-04-01 16:39:00,
2013-04-01 11:40:00,62.2,49.9,30.08,ENE,62,4.0,7.0,64,0.00,,---,0.01,VWS V14.01,2013-04-01 16:40:00,
2013-04-01 11:42:00,62.2,49.5,30.09,NNE,15,1.0,7.0,63,0.00,,---,0.01,VWS V14.01,2013-04-01 16:42:00,
2013-04-01 11:43:00,62.3,49.6,30.09,NNW,335,2.0,7.0,63,0.00,,---,0.01,VWS V14.01,2013-04-01 16:43:00,
2013-04-01 11:44:00,62.3,49.1,30.09,West,268,1.0,7.0,62,0.00,,---,0.01,VWS V14.01,2013-04-01 16:44:00,
2013-04-01 11:45:00,62.4,49.7,30.08,NNW,333,1.0,1.0,63,0.00,,---,0.01,VWS V14.01,2013-04-01 16:45:00,
2013-04-01 11:47:00,62.6,49.4,30.09,NNE,20,3.0,3.0,62,0.00,,---,0.01,VWS V14.01,2013-04-01 16:47:00,
2013-04-01 11:48:00,62.6,49.4,30.09,East,80,2.0,5.0,62,0.00,,---,0.01,VWS V14.01,2013-04-01 16:48:00,
2013-04-01 11:49:00,62.6,49.0,30.09,ENE,70,2.0,5.0,61,0.00,,---,0.01,VWS V14.01,2013-04-01 16:49:00,
2013-04-01 11:51:00,62.4,49.2,30.09,SW,233,2.0,5.0,62,0.00,,---,0.01,VWS V14.01,2013-04-01 16:51:00,
2013-04-01 11:53:00,62.4,48.8,30.09,West,262,0.0,5.0,61,0.00,,---,0.01,VWS V14.01,2013-04-01 16:53:00,
2013-04-01 11:54:00,62.4,49.7,30.09,West,266,1.0,5.0,63,0.00,,---,0.01,VWS V14.01,2013-04-01 16:54:00,
2013-04-01 11:57:00,62.8,50.0,30.09,NW,316,0.0,5.0,63,0.00,,---,0.01,VWS V14.01,2013-04-01 16:57:00,
2013-04-01 11:58:00,63.0,50.2,30.09,NW,321,1.0,5.0,63,0.00,,---,0.01,VWS V14.01,2013-04-01 16:58:00,
2013-04-01 11:59:00,63.2,50.0,30.09,NNW,344,1.0,5.0,62,0.00,,---,0.01,VWS V14.01,2013-04-01 16:59:00,
2013-04-01 12:00:00,63.4,49.3,30.09,NNE,31,1.0,5.0,60,0.00,,---,0.01,VWS V14.01,2013-04-01 17:00:00,
2013-04-01 12:02:00,63.5,49.4,30.09,WNW,288,1.0,2.0,60,0.00,,---,0.01,VWS V14.01,2013-04-01 17:02:00,
2013-04-01 12:03:00,63.5,49.4,30.09,WNW,290,1.0,2.0,60,0.00,,---,0.01,VWS V14.01,2013-04-01 17:03:00,
2013-04-01 12:04:00,63.5,49.4,30.09,NNE,24,4.0,4.0,60,0.00,,---,0.01,VWS V14.01,2013-04-01 17:04:00,
2013-04-01 12:05:00,63.5,49.4,30.09,North,357,2.0,4.0,60,0.00,,---,0.01,VWS V14.01,2013-04-01 17:05:00,
2013-04-01 12:07:00,63.3,48.3,30.09,North,360,1.0,4.0,58,0.00,,---,0.01,VWS V14.01,2013-04-01 17:07:00,
2013-04-01 12:08:00,63.3,48.3,30.09,WNW,295,1.0,4.0,58,0.00,,---,0.01,VWS V14.01,2013-04-01 17:08:00,
2013-04-01 12:09:00,63.2,49.1,30.09,NNW,331,1.0,4.0,60,0.00,,---,0.01,VWS V14.01,2013-04-01 17:09:00,
2013-04-01 12:10:00,63.3,48.7,30.09,NW,314,1.0,4.0,59,0.00,,---,0.01,VWS V14.01,2013-04-01 17:10:00,
2013-04-01 12:12:00,63.5,48.9,30.09,ENE,77,4.0,4.0,59,0.00,,---,0.01,VWS V14.01,2013-04-01 17:12:00,
2013-04-01 12:13:00,63.6,49.0,30.09,North,360,3.0,4.0,59,0.00,,---,0.01,VWS V14.01,2013-04-01 17:13:00,
2013-04-01 12:15:00,63.6,47.6,30.09,NNW,340,0.0,4.0,56,0.00,,---,0.01,VWS V14.01,2013-04-01 17:15:00,
2013-04-01 12:18:00,63.5,48.5,30.09,NNE,21,2.0,4.0,58,0.00,,---,0.01,VWS V14.01,2013-04-01 17:18:00,
2013-04-01 12:20:00,63.5,47.5,30.09,ENE,77,8.0,8.0,56,0.00,,---,0.01,VWS V14.01,2013-04-01 17:20:00,
2013-04-01 12:23:00,63.2,47.3,30.09,NNE,19,4.0,8.0,56,0.00,,---,0.01,VWS V14.01,2013-04-01 17:23:00,
2013-04-01 12:25:00,63.0,47.5,30.09,NE,51,1.0,8.0,57,0.00,,---,0.01,VWS V14.01,2013-04-01 17:25:00,
2013-04-01 12:28:00,62.9,47.5,30.09,ENE,62,0.0,8.0,57,0.00,,---,0.01,VWS V14.01,2013-04-01 17:28:00,
2013-04-01 12:30:00,63.1,48.1,30.09,ENE,77,2.0,8.0,58,0.00,,---,0.01,VWS V14.01,2013-04-01 17:30:00,
2013-04-01 12:33:00,63.4,49.3,30.09,ENE,69,6.0,8.0,60,0.00,,---,0.01,VWS V14.01,2013-04-01 17:33:00,
2013-04-01 12:35:00,63.5,48.0,30.09,ENE,66,1.0,8.0,57,0.00,,---,0.01,VWS V14.01,2013-04-01 17:35:00,
2013-04-01 12:36:00,63.5,48.0,30.09,ENE,62,1.0,8.0,57,0.00,,---,0.01,VWS V14.01,2013-04-01 17:36:00,
2013-04-01 12:38:00,63.6,48.6,30.09,WNW,299,3.0,8.0,58,0.00,,---,0.01,VWS V14.01,2013-04-01 17:38:00,
2013-04-01 12:41:00,63.9,48.4,30.09,NNW,333,1.0,8.0,57,0.00,,---,0.01,VWS V14.01,2013-04-01 17:41:00,
2013-04-01 12:43:00,63.9,48.4,30.09,NNE,29,1.0,8.0,57,0.00,,---,0.01,VWS V14.01,2013-04-01 17:43:00,
2013-04-01 12:46:00,64.1,48.6,30.09,East,89,5.0,5.0,57,0.00,,---,0.01,VWS V14.01,2013-04-01 17:46:00,
2013-04-01 12:48:00,64.1,47.6,30.09,North,3,1.0,5.0,55,0.00,,---,0.01,VWS V14.01,2013-04-01 17:48:00,
2013-04-01 12:49:00,64.1,47.6,30.09,ENE,59,2.0,5.0,55,0.00,,---,0.01,VWS V14.01,2013-04-01 17:49:00,
2013-04-01 12:52:00,64.1,48.1,30.09,NE,52,5.0,5.0,56,0.00,,---,0.01,VWS V14.01,2013-04-01 17:52:00,
2013-04-01 12:54:00,64.1,47.6,30.09,NE,39,1.0,5.0,55,0.00,,---,0.01,VWS V14.01,2013-04-01 17:54:00,
2013-04-01 12:57:00,64.1,47.6,30.09,ENE,57,1.0,5.0,55,0.00,,---,0.01,VWS V14.01,2013-04-01 17:57:00,
2013-04-01 12:59:00,64.2,48.2,30.08,North,360,2.0,5.0,56,0.00,,---,0.01,VWS V14.01,2013-04-01 17:59:00,
2013-04-01 13:02:00,64.2,47.7,30.08,ENE,58,2.0,4.0,55,0.00,,---,0.01,VWS V14.01,2013-04-01 18:02:00,
2013-04-01 13:04:00,64.0,47.5,30.08,North,352,1.0,4.0,55,0.00,,---,0.01,VWS V14.01,2013-04-01 18:04:00,
2013-04-01 13:07:00,64.2,48.2,30.08,West,281,2.0,4.0,56,0.00,,---,0.01,VWS V14.01,2013-04-01 18:07:00,
2013-04-01 13:09:00,64.5,49.0,30.08,North,358,1.0,4.0,57,0.00,,---,0.01,VWS V14.01,2013-04-01 18:09:00,
2013-04-01 13:12:00,65.2,48.2,30.08,North,354,2.0,4.0,54,0.00,,---,0.01,VWS V14.01,2013-04-01 18:12:00,
2013-04-01 13:14:00,65.2,49.1,30.08,NNW,342,1.0,4.0,56,0.00,,---,0.01,VWS V14.01,2013-04-01 18:14:00,
2013-04-01 13:17:00,65.4,47.8,30.08,ENE,75,2.0,3.0,53,0.00,,---,0.01,VWS V14.01,2013-04-01 18:17:00,
2013-04-01 13:19:00,65.4,48.3,30.08,North,350,2.0,3.0,54,0.00,,---,0.01,VWS V14.01,2013-04-01 18:19:00,
2013-04-01 13:22:00,65.6,50.0,30.08,NNW,333,1.0,3.0,57,0.00,,---,0.01,VWS V14.01,2013-04-01 18:22:00,
2013-04-01 13:23:00,65.7,50.1,30.08,NNW,343,2.0,3.0,57,0.00,,---,0.01,VWS V14.01,2013-04-01 18:23:00,
2013-04-01 13:24:00,66.0,49.4,30.08,North,352,1.0,3.0,55,0.00,,---,0.01,VWS V14.01,2013-04-01 18:24:00,
2013-04-01 13:27:00,65.9,48.3,30.08,ENE,60,3.0,6.0,53,0.00,,---,0.01,VWS V14.01,2013-04-01 18:27:00,
2013-04-01 13:28:00,65.8,48.2,30.08,NNW,338,2.0,6.0,53,0.00,,---,0.01,VWS V14.01,2013-04-01 18:28:00,
2013-04-01 13:29:00,65.9,48.8,30.08,NNW,344,2.0,6.0,54,0.00,,---,0.01,VWS V14.01,2013-04-01 18:29:00,
2013-04-01 13:30:00,65.8,48.7,30.08,North,8,3.0,6.0,54,0.00,,---,0.01,VWS V14.01,2013-04-01 18:30:00,
2013-04-01 13:33:00,66.0,48.4,30.08,South,188,1.0,2.0,53,0.00,,---,0.01,VWS V14.01,2013-04-01 18:33:00,
2013-04-01 13:34:00,66.2,48.1,30.08,SE,145,1.0,2.0,52,0.00,,---,0.01,VWS V14.01,2013-04-01 18:34:00,
2013-04-01 13:35:00,66.2,48.1,30.08,SE,144,1.0,2.0,52,0.00,,---,0.01,VWS V14.01,2013-04-01 18:35:00,
2013-04-01 13:38:00,66.1,48.5,30.08,NE,50,3.0,4.0,53,0.00,,---,0.01,VWS V14.01,2013-04-01 18:38:00,
2013-04-01 13:40:00,66.0,48.4,30.08,NNW,335,4.0,4.0,53,0.00,,---,0.01,VWS V14.01,2013-04-01 18:40:00,
2013-04-01 13:43:00,66.0,47.9,30.07,NNW,329,1.0,5.0,52,0.00,,---,0.01,VWS V14.01,2013-04-01 18:43:00,
2013-04-01 13:45:00,66.1,48.5,30.07,North,10,2.0,5.0,53,0.00,,---,0.01,VWS V14.01,2013-04-01 18:45:00,
2013-04-01 13:48:00,66.3,48.2,30.07,ENE,73,2.0,4.0,52,0.00,,---,0.01,VWS V14.01,2013-04-01 18:48:00,
2013-04-01 13:49:00,66.3,48.2,30.07,East,86,4.0,4.0,52,0.00,,---,0.01,VWS V14.01,2013-04-01 18:49:00,
2013-04-01 13:50:00,66.2,47.6,30.07,East,82,2.0,5.0,51,0.00,,---,0.01,VWS V14.01,2013-04-01 18:50:00,
2013-04-01 13:53:00,66.4,49.3,30.07,East,90,1.0,5.0,54,0.00,,---,0.01,VWS V14.01,2013-04-01 18:53:00,
2013-04-01 13:54:00,66.4,49.3,30.07,ENE,72,2.0,5.0,54,0.00,,---,0.01,VWS V14.01,2013-04-01 18:54:00,
2013-04-01 13:55:00,66.5,47.8,30.07,NW,316,1.0,5.0,51,0.00,,---,0.01,VWS V14.01,2013-04-01 18:55:00,
2013-04-01 13:58:00,66.6,47.4,30.07,ENE,65,1.0,5.0,50,0.00,,---,0.01,VWS V14.01,2013-04-01 18:58:00,
2013-04-01 13:59:00,66.6,47.4,30.07,NNW,332,1.0,5.0,50,0.00,,---,0.01,VWS V14.01,2013-04-01 18:59:00,
2013-04-01 14:00:00,66.7,49.0,30.07,NNW,331,1.0,5.0,53,0.00,,---,0.01,VWS V14.01,2013-04-01 19:00:00,
2013-04-01 14:01:00,66.7,49.0,30.07,NNW,337,2.0,2.0,53,0.00,,---,0.01,VWS V14.01,2013-04-01 19:01:00,
2013-04-01 14:03:00,67.3,49.1,30.07,WNW,288,2.0,2.0,52,0.00,,---,0.01,VWS V14.01,2013-04-01 19:03:00,
2013-04-01 14:04:00,67.4,49.2,30.07,WNW,284,1.0,2.0,52,0.00,,---,0.01,VWS V14.01,2013-04-01 19:04:00,
2013-04-01 14:05:00,67.6,48.8,30.07,WNW,295,0.0,2.0,51,0.00,,---,0.01,VWS V14.01,2013-04-01 19:05:00,
2013-04-01 14:06:00,67.7,48.9,30.07,WNW,302,1.0,2.0,51,0.00,,---,0.01,VWS V14.01,2013-04-01 19:06:00,
2013-04-01 14:08:00,67.7,47.9,30.07,NNE,17,2.0,3.0,49,0.00,,---,0.01,VWS V14.01,2013-04-01 19:08:00,
2013-04-01 14:09:00,67.6,47.8,30.07,SSE,157,1.0,3.0,49,0.00,,---,0.01,VWS V14.01,2013-04-01 19:09:00,
2013-04-01 14:10:00,67.4,48.1,30.07,ESE,114,2.0,3.0,50,0.00,,---,0.01,VWS V14.01,2013-04-01 19:10:00,
2013-04-01 14:11:00,67.4,48.1,30.07,East,101,2.0,3.0,50,0.00,,---,0.01,VWS V14.01,2013-04-01 19:11:00,
2013-04-01 14:13:00,67.3,48.0,30.07,NNW,344,2.0,3.0,50,0.00,,---,0.01,VWS V14.01,2013-04-01 19:13:00,
2013-04-01 14:14:00,67.4,48.1,30.07,NW,324,1.0,3.0,50,0.00,,---,0.01,VWS V14.01,2013-04-01 19:14:00,
2013-04-01 14:16:00,67.6,47.8,30.06,NW,323,1.0,1.0,49,0.00,,---,0.01,VWS V14.01,2013-04-01 19:16:00,
2013-04-01 14:19:00,67.5,47.7,30.06,NNW,335,1.0,4.0,49,0.00,,---,0.01,VWS V14.01,2013-04-01 19:19:00,
2013-04-01 14:21:00,67.5,47.7,30.06,NNW,344,1.0,4.0,49,0.00,,---,0.01,VWS V14.01,2013-04-01 19:21:00,
2013-04-01 14:22:00,67.5,48.2,30.06,NW,314,2.0,4.0,50,0.00,,---,0.01,VWS V14.01,2013-04-01 19:22:00,
2013-04-01 14:24:00,67.7,47.9,30.07,WNW,295,3.0,5.0,49,0.00,,---,0.01,VWS V14.01,2013-04-01 19:24:00,
2013-04-01 14:26:00,67.6,47.8,30.06,WNW,283,1.0,5.0,49,0.00,,---,0.01,VWS V14.01,2013-04-01 19:26:00,
2013-04-01 14:27:00,67.7,48.4,30.06,SW,218,1.0,5.0,50,0.00,,---,0.01,VWS V14.01,2013-04-01 19:27:00,
2013-04-01 14:29:00,67.8,47.4,30.06,SW,218,0.0,5.0,48,0.00,,---,0.01,VWS V14.01,2013-04-01 19:29:00,
2013-04-01 14:30:00,67.8,47.4,30.06,East,90,3.0,5.0,48,0.00,,---,0.01,VWS V14.01,2013-04-01 19:30:00,
2013-04-01 14:31:00,67.7,46.8,30.06,East,86,1.0,3.0,47,0.00,,---,0.01,VWS V14.01,2013-04-01 19:31:00,
2013-04-01 14:32:00,67.5,47.1,30.06,NE,45,4.0,5.0,48,0.00,,---,0.01,VWS V14.01,2013-04-01 19:32:00,
2013-04-01 14:34:00,67.5,47.1,30.06,ENE,62,2.0,5.0,48,0.00,,---,0.01,VWS V14.01,2013-04-01 19:34:00,
2013-04-01 14:35:00,67.5,47.1,30.06,North,8,1.0,5.0,48,0.00,,---,0.01,VWS V14.01,2013-04-01 19:35:00,
2013-04-01 14:36:00,67.5,47.1,30.06,ENE,62,2.0,5.0,48,0.00,,---,0.01,VWS V14.01,2013-04-01 19:36:00,
2013-04-01 14:37:00,67.3,47.0,30.06,ENE,77,2.0,7.0,48,0.00,,---,0.01,VWS V14.01,2013-04-01 19:37:00,
2013-04-01 14:39:00,67.3,47.0,30.06,ENE,63,2.0,7.0,48,0.00,,---,0.01,VWS V14.01,2013-04-01 19:39:00,
2013-04-01 14:40:00,67.2,47.4,30.06,ENE,69,3.0,7.0,49,0.00,,---,0.01,VWS V14.01,2013-04-01 19:40:00,
2013-04-01 14:41:00,67.2,47.4,30.06,East,84,6.0,7.0,49,0.00,,---,0.01,VWS V14.01,2013-04-01 19:41:00,
2013-04-01 14:42:00,67.0,46.7,30.06,SE,127,2.0,7.0,48,0.00,,---,0.01,VWS V14.01,2013-04-01 19:42:00,
2013-04-01 14:44:00,66.9,46.6,30.06,NNW,337,1.0,7.0,48,0.00,,---,0.01,VWS V14.01,2013-04-01 19:44:00,
2013-04-01 14:45:00,66.9,47.7,30.06,NNE,21,1.0,7.0,50,0.00,,---,0.01,VWS V14.01,2013-04-01 19:45:00,
2013-04-01 14:47:00,67.0,47.2,30.05,NE,56,2.0,4.0,49,0.00,,---,0.01,VWS V14.01,2013-04-01 19:47:00,
2013-04-01 14:48:00,67.1,47.3,30.06,North,3,0.0,4.0,49,0.00,,---,0.01,VWS V14.01,2013-04-01 19:48:00,
2013-04-01 14:49:00,67.4,48.1,30.06,NW,310,1.0,4.0,50,0.00,,---,0.01,VWS V14.01,2013-04-01 19:49:00,
2013-04-01 14:50:00,67.6,47.8,30.06,NW,323,0.0,4.0,49,0.00,,---,0.01,VWS V14.01,2013-04-01 19:50:00,
2013-04-01 14:52:00,68.0,48.7,30.06,West,259,3.0,5.0,50,0.00,,---,0.01,VWS V14.01,2013-04-01 19:52:00,
2013-04-01 14:53:00,68.0,46.5,30.06,WNW,295,1.0,5.0,46,0.00,,---,0.01,VWS V14.01,2013-04-01 19:53:00,
2013-04-01 14:54:00,68.1,47.1,30.05,West,274,0.0,5.0,47,0.00,,---,0.01,VWS V14.01,2013-04-01 19:54:00,
2013-04-01 14:55:00,68.2,47.8,30.06,West,274,0.0,5.0,48,0.00,,---,0.01,VWS V14.01,2013-04-01 19:55:00,
2013-04-01 14:57:00,68.4,48.0,30.05,North,355,1.0,5.0,48,0.00,,---,0.01,VWS V14.01,2013-04-01 19:57:00,
2013-04-01 14:58:00,68.4,46.8,30.05,North,354,1.0,5.0,46,0.00,,---,0.01,VWS V14.01,2013-04-01 19:58:00,
2013-04-01 14:59:00,68.4,46.8,30.05,WNW,298,5.0,5.0,46,0.00,,---,0.01,VWS V14.01,2013-04-01 19:59:00,
2013-04-01 15:00:00,68.4,46.8,30.05,NNE,28,4.0,5.0,46,0.00,,---,0.01,VWS V14.01,2013-04-01 20:00:00,
2013-04-01 15:02:00,68.3,46.7,30.05,NNW,328,1.0,4.0,46,0.00,,---,0.01,VWS V14.01,2013-04-01 20:02:00,
2013-04-01 15:03:00,68.2,46.7,30.05,WNW,300,1.0,4.0,46,0.00,,---,0.01,VWS V14.01,2013-04-01 20:03:00,
2013-04-01 15:04:00,68.2,46.7,30.05,NNW,330,1.0,4.0,46,0.00,,---,0.01,VWS V14.01,2013-04-01 20:04:00,
2013-04-01 15:05:00,68.3,47.3,30.05,NNW,335,2.0,4.0,47,0.00,,---,0.01,VWS V14.01,2013-04-01 20:05:00,
2013-04-01 15:07:00,68.6,47.6,30.05,North,356,2.0,4.0,47,0.00,,---,0.01,VWS V14.01,2013-04-01 20:07:00,
2013-04-01 15:08:00,68.7,47.7,30.05,NNW,343,1.0,4.0,47,0.00,,---,0.01,VWS V14.01,2013-04-01 20:08:00,
2013-04-01 15:09:00,68.8,46.0,30.05,NNE,19,2.0,4.0,44,0.00,,---,0.01,VWS V14.01,2013-04-01 20:09:00,
2013-04-01 15:10:00,68.8,46.6,30.05,NE,37,1.0,4.0,45,0.00,,---,0.01,VWS V14.01,2013-04-01 20:10:00,
2013-04-01 15:12:00,68.9,47.9,30.05,NNW,337,2.0,4.0,47,0.00,,---,0.01,VWS V14.01,2013-04-01 20:12:00,
2013-04-01 15:13:00,69.0,47.4,30.05,NW,323,1.0,4.0,46,0.00,,---,0.01,VWS V14.01,2013-04-01 20:13:00,
2013-04-01 15:14:00,69.2,46.4,30.05,North,357,1.0,4.0,44,0.00,,---,0.01,VWS V14.01,2013-04-01 20:14:00,
2013-04-01 15:15:00,69.2,47.6,30.05,NNW,330,1.0,1.0,46,0.00,,---,0.01,VWS V14.01,2013-04-01 20:15:00,
2013-04-01 15:18:00,69.2,47.0,30.05,NW,323,1.0,3.0,45,0.00,,---,0.01,VWS V14.01,2013-04-01 20:18:00,
2013-04-01 15:19:00,69.2,45.8,30.05,NW,307,1.0,3.0,43,0.00,,---,0.01,VWS V14.01,2013-04-01 20:19:00,
2013-04-01 15:20:00,69.2,45.8,30.05,NW,305,1.0,3.0,43,0.00,,---,0.01,VWS V14.01,2013-04-01 20:20:00,
2013-04-01 15:23:00,69.2,46.4,30.05,NNE,18,1.0,3.0,44,0.00,,---,0.01,VWS V14.01,2013-04-01 20:23:00,
2013-04-01 15:24:00,69.2,47.0,30.05,West,271,1.0,3.0,45,0.00,,---,0.01,VWS V14.01,2013-04-01 20:24:00,
2013-04-01 15:25:00,69.2,46.4,30.05,WNW,295,2.0,3.0,44,0.00,,---,0.01,VWS V14.01,2013-04-01 20:25:00,
2013-04-01 15:28:00,69.2,47.6,30.05,NW,304,0.0,4.0,46,0.00,,---,0.01,VWS V14.01,2013-04-01 20:28:00,
2013-04-01 15:29:00,69.2,47.6,30.05,East,79,2.0,4.0,46,0.00,,---,0.01,VWS V14.01,2013-04-01 20:29:00,
2013-04-01 15:31:00,69.2,46.4,30.05,NNW,343,0.0,2.0,44,0.00,,---,0.01,VWS V14.01,2013-04-01 20:31:00,
2013-04-01 15:33:00,69.4,47.7,30.05,NE,49,2.0,2.0,46,0.00,,---,0.01,VWS V14.01,2013-04-01 20:33:00,
2013-04-01 15:34:00,69.4,46.6,30.05,NE,35,2.0,3.0,44,0.00,,---,0.01,VWS V14.01,2013-04-01 20:34:00,
2013-04-01 15:37:00,69.2,46.4,30.05,North,10,0.0,3.0,44,0.00,,---,0.01,VWS V14.01,2013-04-01 20:37:00,
2013-04-01 15:38:00,68.8,45.4,30.05,SE,127,1.0,5.0,43,0.00,,---,0.01,VWS V14.01,2013-04-01 20:38:00,
2013-04-01 15:39:00,68.7,45.9,30.05,SSE,150,0.0,5.0,44,0.00,,---,0.01,VWS V14.01,2013-04-01 20:39:00,
2013-04-01 15:40:00,68.7,45.9,30.05,SSE,150,1.0,5.0,44,0.00,,---,0.01,VWS V14.01,2013-04-01 20:40:00,
2013-04-01 15:42:00,68.9,47.3,30.05,NW,309,0.0,5.0,46,0.00,,---,0.01,VWS V14.01,2013-04-01 20:42:00,
2013-04-01 15:43:00,69.2,47.0,30.05,WNW,293,2.0,5.0,45,0.00,,---,0.01,VWS V14.01,2013-04-01 20:43:00,
2013-04-01 15:44:00,69.4,47.2,30.05,NNW,333,1.0,5.0,45,0.00,,---,0.01,VWS V14.01,2013-04-01 20:44:00,
2013-04-01 15:45:00,69.5,47.2,30.05,NNW,333,2.0,5.0,45,0.00,,---,0.01,VWS V14.01,2013-04-01 20:45:00,
2013-04-01 15:47:00,69.9,47.6,30.05,North,349,2.0,2.0,45,0.00,,---,0.01,VWS V14.01,2013-04-01 20:47:00,
2013-04-01 15:49:00,70.0,46.5,30.04,NW,324,1.0,3.0,43,0.00,,---,0.01,VWS V14.01,2013-04-01 20:49:00,
2013-04-01 15:50:00,70.0,46.5,30.05,NW,323,0.0,3.0,43,0.00,,---,0.01,VWS V14.01,2013-04-01 20:50:00,
2013-04-01 15:53:00,69.9,47.0,30.05,NNW,330,0.0,3.0,44,0.00,,---,0.01,VWS V14.01,2013-04-01 20:53:00,
2013-04-01 15:54:00,69.9,47.0,30.04,NW,305,1.0,3.0,44,0.00,,---,0.01,VWS V14.01,2013-04-01 20:54:00,
2013-04-01 15:55:00,69.9,46.4,30.04,NW,323,0.0,3.0,43,0.00,,---,0.01,VWS V14.01,2013-04-01 20:55:00,
2013-04-01 15:58:00,70.1,46.6,30.04,WNW,291,3.0,3.0,43,0.00,,---,0.01,VWS V14.01,2013-04-01 20:58:00,
2013-04-01 15:59:00,70.1,47.2,30.04,NNW,330,1.0,3.0,44,0.00,,---,0.01,VWS V14.01,2013-04-01 20:59:00,
2013-04-01 16:00:00,70.2,47.3,30.05,NNW,329,1.0,3.0,44,0.00,,---,0.01,VWS V14.01,2013-04-01 21:00:00,
2013-04-01 16:03:00,70.2,46.7,30.04,NW,326,1.0,2.0,43,0.00,,---,0.01,VWS V14.01,2013-04-01 21:03:00,
2013-04-01 16:04:00,70.1,46.0,30.04,North,6,2.0,2.0,42,0.00,,---,0.01,VWS V14.01,2013-04-01 21:04:00,
2013-04-01 16:05:00,70.0,46.5,30.04,North,3,2.0,2.0,43,0.00,,---,0.01,VWS V14.01,2013-04-01 21:05:00,
2013-04-01 16:08:00,69.7,47.4,30.04,North,349,1.0,2.0,45,0.00,,---,0.01,VWS V14.01,2013-04-01 21:08:00,
2013-04-01 16:09:00,69.7,46.8,30.04,NE,34,2.0,2.0,44,0.00,,---,0.01,VWS V14.01,2013-04-01 21:09:00,
2013-04-01 16:10:00,69.6,45.5,30.04,NNE,27,1.0,2.0,42,0.00,,---,0.01,VWS V14.01,2013-04-01 21:10:00,
2013-04-01 16:13:00,69.4,45.3,30.04,WNW,295,2.0,4.0,42,0.00,,---,0.01,VWS V14.01,2013-04-01 21:13:00,
2013-04-01 16:14:00,69.4,45.3,30.05,WNW,295,1.0,4.0,42,0.00,,---,0.01,VWS V14.01,2013-04-01 21:14:00,
2013-04-01 16:15:00,69.5,46.7,30.04,WNW,295,1.0,4.0,44,0.00,,---,0.01,VWS V14.01,2013-04-01 21:15:00,
2013-04-01 16:18:00,70.0,47.1,30.04,NNW,340,1.0,3.0,44,0.00,,---,0.01,VWS V14.01,2013-04-01 21:18:00,
2013-04-01 16:19:00,70.0,47.1,30.04,NNE,21,2.0,3.0,44,0.00,,---,0.01,VWS V14.01,2013-04-01 21:19:00,
2013-04-01 16:20:00,70.0,45.9,30.04,NNW,335,1.0,3.0,42,0.00,,---,0.01,VWS V14.01,2013-04-01 21:20:00,
2013-04-01 16:23:00,70.1,45.3,30.04,NW,304,1.0,3.0,41,0.00,,---,0.01,VWS V14.01,2013-04-01 21:23:00,
2013-04-01 16:24:00,70.2,45.4,30.04,WNW,290,0.0,3.0,41,0.00,,---,0.01,VWS V14.01,2013-04-01 21:24:00,
2013-04-01 16:25:00,70.1,44.7,30.04,WSW,257,4.0,6.0,40,0.00,,---,0.01,VWS V14.01,2013-04-01 21:25:00,
2013-04-01 16:26:00,70.1,44.7,30.04,NW,318,2.0,6.0,40,0.00,,---,0.01,VWS V14.01,2013-04-01 21:26:00,
2013-04-01 16:28:00,69.9,45.8,30.04,West,271,0.0,6.0,42,0.00,,---,0.01,VWS V14.01,2013-04-01 21:28:00,
2013-04-01 16:29:00,70.0,45.9,30.04,West,271,1.0,6.0,42,0.00,,---,0.01,VWS V14.01,2013-04-01 21:29:00,
2013-04-01 16:30:00,70.1,46.6,30.04,NW,315,2.0,2.0,43,0.00,,---,0.01,VWS V14.01,2013-04-01 21:30:00,
2013-04-01 16:31:00,70.1,46.6,30.04,NW,321,1.0,2.0,43,0.00,,---,0.01,VWS V14.01,2013-04-01 21:31:00,
2013-04-01 16:33:00,70.3,44.9,30.04,NW,309,1.0,2.0,40,0.00,,---,0.01,VWS V14.01,2013-04-01 21:33:00,
2013-04-01 16:34:00,70.2,44.8,30.04,NW,304,1.0,2.0,40,0.00,,---,0.01,VWS V14.01,2013-04-01 21:34:00,
2013-04-01 16:35:00,70.2,46.1,30.04,NW,304,0.0,2.0,42,0.00,,---,0.01,VWS V14.01,2013-04-01 21:35:00,
2013-04-01 16:36:00,70.2,46.1,30.04,NW,304,1.0,2.0,42,0.00,,---,0.01,VWS V14.01,2013-04-01 21:36:00,
2013-04-01 16:39:00,70.6,45.8,30.04,NW,304,1.0,2.0,41,0.00,,---,0.01,VWS V14.01,2013-04-01 21:39:00,
2013-04-01 16:40:00,70.6,45.8,30.04,North,11,1.0,2.0,41,0.00,,---,0.01,VWS V14.01,2013-04-01 21:40:00,
2013-04-01 16:41:00,70.5,45.7,30.04,North,8,2.0,3.0,41,0.00,,---,0.01,VWS V14.01,2013-04-01 21:41:00,
2013-04-01 16:44:00,70.3,46.8,30.04,North,6,1.0,3.0,43,0.00,,---,0.01,VWS V14.01,2013-04-01 21:44:00,
2013-04-01 16:46:00,70.2,46.1,30.04,NW,306,1.0,2.0,42,0.00,,---,0.01,VWS V14.01,2013-04-01 21:46:00,
2013-04-01 16:47:00,70.3,46.2,30.04,NW,305,0.0,2.0,42,0.00,,---,0.01,VWS V14.01,2013-04-01 21:47:00,
2013-04-01 16:49:00,70.4,45.6,30.04,NW,326,1.0,3.0,41,0.00,,---,0.01,VWS V14.01,2013-04-01 21:49:00,
2013-04-01 16:51:00,70.5,45.7,30.04,WNW,300,1.0,3.0,41,0.00,,---,0.01,VWS V14.01,2013-04-01 21:51:00,
2013-04-01 16:52:00,70.6,46.4,30.04,NNW,337,2.0,3.0,42,0.00,,---,0.01,VWS V14.01,2013-04-01 21:52:00,
2013-04-01 16:54:00,70.6,45.1,30.05,WNW,290,0.0,3.0,40,0.00,,---,0.01,VWS V14.01,2013-04-01 21:54:00,
2013-04-01 16:56:00,70.8,46.0,30.04,WNW,290,0.0,3.0,41,0.00,,---,0.01,VWS V14.01,2013-04-01 21:56:00,
2013-04-01 16:57:00,70.8,46.0,30.04,WNW,290,0.0,3.0,41,0.00,,---,0.01,VWS V14.01,2013-04-01 21:57:00,
2013-04-01 16:59:00,70.9,46.0,30.04,WNW,288,0.0,3.0,41,0.00,,---,0.01,VWS V14.01,2013-04-01 21:59:00,
2013-04-01 17:01:00,71.1,46.2,30.04,NNW,344,1.0,2.0,41,0.00,,---,0.01,VWS V14.01,2013-04-01 22:01:00,
2013-04-01 17:02:00,71.1,46.2,30.04,NW,310,1.0,2.0,41,0.00,,---,0.01,VWS V14.01,2013-04-01 22:02:00,
2013-04-01 17:04:00,70.9,46.0,30.04,WNW,295,0.0,2.0,41,0.00,,---,0.01,VWS V14.01,2013-04-01 22:04:00,
2013-04-01 17:07:00,70.9,46.7,30.04,WNW,285,1.0,2.0,42,0.00,,---,0.01,VWS V14.01,2013-04-01 22:07:00,
2013-04-01 17:09:00,70.8,46.0,30.04,WNW,285,0.0,2.0,41,0.00,,---,0.01,VWS V14.01,2013-04-01 22:09:00,
2013-04-01 17:12:00,70.6,45.8,30.04,NW,309,1.0,2.0,41,0.00,,---,0.01,VWS V14.01,2013-04-01 22:12:00,
2013-04-01 17:15:00,70.5,46.3,30.04,NW,324,2.0,3.0,42,0.00,,---,0.01,VWS V14.01,2013-04-01 22:15:00,
2013-04-01 17:17:00,70.4,46.2,30.04,NW,307,1.0,1.0,42,0.00,,---,0.01,VWS V14.01,2013-04-01 22:17:00,
2013-04-01 17:18:00,70.5,45.7,30.04,NW,307,0.0,1.0,41,0.00,,---,0.01,VWS V14.01,2013-04-01 22:18:00,
2013-04-01 17:20:00,70.5,46.3,30.04,NW,307,1.0,1.0,42,0.00,,---,0.01,VWS V14.01,2013-04-01 22:20:00,
2013-04-01 17:22:00,70.3,46.2,30.04,NNW,333,1.0,2.0,42,0.00,,---,0.01,VWS V14.01,2013-04-01 22:22:00,
2013-04-01 17:24:00,70.3,46.2,30.04,NNE,31,2.0,2.0,42,0.00,,---,0.01,VWS V14.01,2013-04-01 22:24:00,
2013-04-01 17:25:00,70.1,45.3,30.04,NW,318,1.0,2.0,41,0.00,,---,0.01,VWS V14.01,2013-04-01 22:25:00,
2013-04-01 17:27:00,69.9,45.2,30.04,WNW,293,0.0,3.0,41,0.00,,---,0.01,VWS V14.01,2013-04-01 22:27:00,
2013-04-01 17:29:00,69.9,45.8,30.04,NNW,344,2.0,3.0,42,0.00,,---,0.01,VWS V14.01,2013-04-01 22:29:00,
2013-04-01 17:30:00,69.8,45.7,30.04,WNW,299,0.0,3.0,42,0.00,,---,0.01,VWS V14.01,2013-04-01 22:30:00,
2013-04-01 17:32:00,69.8,46.3,30.04,WNW,285,1.0,2.0,43,0.00,,---,0.01,VWS V14.01,2013-04-01 22:32:00,
2013-04-01 17:34:00,69.7,46.2,30.04,NNW,328,2.0,2.0,43,0.00,,---,0.01,VWS V14.01,2013-04-01 22:34:00,
2013-04-01 17:35:00,69.7,45.6,30.04,North,8,2.0,2.0,42,0.00,,---,0.01,VWS V14.01,2013-04-01 22:35:00,
2013-04-01 17:37:00,69.3,45.2,30.04,North,8,1.0,3.0,42,0.00,,---,0.01,VWS V14.01,2013-04-01 22:37:00,
2013-04-01 17:39:00,69.1,45.1,30.04,NNW,344,1.0,3.0,42,0.00,,---,0.01,VWS V14.01,2013-04-01 22:39:00,
2013-04-01 17:40:00,68.9,45.5,30.04,NNW,344,1.0,3.0,43,0.00,,---,0.01,VWS V14.01,2013-04-01 22:40:00,
2013-04-01 17:42:00,68.6,45.2,30.04,East,91,5.0,5.0,43,0.00,,---,0.01,VWS V14.01,2013-04-01 22:42:00,
2013-04-01 17:44:00,68.3,45.0,30.04,East,89,1.0,6.0,43,0.00,,---,0.01,VWS V14.01,2013-04-01 22:44:00,
2013-04-01 17:45:00,68.2,44.9,30.04,ENE,65,4.0,6.0,43,0.00,,---,0.01,VWS V14.01,2013-04-01 22:45:00,
2013-04-01 17:47:00,68.1,45.4,30.04,North,3,1.0,3.0,44,0.00,,---,0.01,VWS V14.01,2013-04-01 22:47:00,
2013-04-01 17:49:00,68.1,46.0,30.04,North,360,1.0,3.0,45,0.00,,---,0.01,VWS V14.01,2013-04-01 22:49:00,
2013-04-01 17:50:00,68.1,45.4,30.04,North,10,2.0,4.0,44,0.00,,---,0.01,VWS V14.01,2013-04-01 22:50:00,
2013-04-01 17:52:00,68.0,45.9,30.04,North,6,0.0,4.0,45,0.00,,---,0.01,VWS V14.01,2013-04-01 22:52:00,
2013-04-01 17:54:00,68.0,45.3,30.04,North,4,2.0,4.0,44,0.00,,---,0.01,VWS V14.01,2013-04-01 22:54:00,
2013-04-01 17:55:00,67.9,45.2,30.04,North,356,2.0,4.0,44,0.00,,---,0.01,VWS V14.01,2013-04-01 22:55:00,
2013-04-01 17:57:00,68.0,45.9,30.04,NW,315,0.0,4.0,45,0.00,,---,0.01,VWS V14.01,2013-04-01 22:57:00,
2013-04-01 18:00:00,68.3,46.2,30.04,NW,315,0.0,4.0,45,0.00,,---,0.01,VWS V14.01,2013-04-01 23:00:00,
2013-04-01 18:02:00,68.3,45.0,30.04,NNE,24,2.0,3.0,43,0.00,,---,0.01,VWS V14.01,2013-04-01 23:02:00,
2013-04-01 18:05:00,67.9,45.8,30.05,East,82,3.0,4.0,45,0.00,,---,0.01,VWS V14.01,2013-04-01 23:05:00,
2013-04-01 18:07:00,67.5,44.8,30.05,East,93,3.0,4.0,44,0.00,,---,0.01,VWS V14.01,2013-04-01 23:07:00,
2013-04-01 18:10:00,67.2,44.6,30.05,North,11,1.0,4.0,44,0.00,,---,0.01,VWS V14.01,2013-04-01 23:10:00,
2013-04-01 18:13:00,66.9,44.9,30.05,North,350,1.0,5.0,45,0.00,,---,0.01,VWS V14.01,2013-04-01 23:13:00,
2013-04-01 18:15:00,66.8,44.8,30.05,North,355,3.0,5.0,45,0.00,,---,0.01,VWS V14.01,2013-04-01 23:15:00,
2013-04-01 18:18:00,66.7,45.3,30.05,NE,42,1.0,4.0,46,0.00,,---,0.01,VWS V14.01,2013-04-01 23:18:00,
2013-04-01 18:20:00,66.6,45.8,30.05,NNW,344,0.0,6.0,47,0.00,,---,0.01,VWS V14.01,2013-04-01 23:20:00,
2013-04-01 18:23:00,66.6,45.2,30.05,NNW,340,1.0,6.0,46,0.00,,---,0.01,VWS V14.01,2013-04-01 23:23:00,
2013-04-01 18:25:00,66.6,45.2,30.05,East,87,6.0,6.0,46,0.00,,---,0.01,VWS V14.01,2013-04-01 23:25:00,
2013-04-01 18:29:00,65.9,44.6,30.06,NNW,342,1.0,7.0,46,0.00,,---,0.01,VWS V14.01,2013-04-01 23:29:00,
2013-04-01 18:30:00,65.7,44.9,30.05,NNW,340,0.0,7.0,47,0.00,,---,0.01,VWS V14.01,2013-04-01 23:30:00,
2013-04-01 18:31:00,65.6,44.8,30.06,NNW,342,1.0,1.0,47,0.00,,---,0.01,VWS V14.01,2013-04-01 23:31:00,
2013-04-01 18:34:00,65.4,45.2,30.06,East,100,1.0,2.0,48,0.00,,---,0.01,VWS V14.01,2013-04-01 23:34:00,
2013-04-01 18:35:00,65.3,45.1,30.06,NE,45,1.0,2.0,48,0.00,,---,0.01,VWS V14.01,2013-04-01 23:35:00,
2013-04-01 18:37:00,65.2,44.5,30.06,NNE,25,2.0,5.0,47,0.00,,---,0.01,VWS V14.01,2013-04-01 23:37:00,
2013-04-01 18:39:00,65.1,44.4,30.06,North,354,1.0,5.0,47,0.00,,---,0.01,VWS V14.01,2013-04-01 23:39:00,
2013-04-01 18:40:00,65.1,44.9,30.06,NW,326,0.0,5.0,48,0.00,,---,0.01,VWS V14.01,2013-04-01 23:40:00,
2013-04-01 18:42:00,65.0,44.8,30.06,North,4,1.0,5.0,48,0.00,,---,0.01,VWS V14.01,2013-04-01 23:42:00,
2013-04-01 18:44:00,65.0,44.8,30.06,NNE,25,2.0,5.0,48,0.00,,---,0.01,VWS V14.01,2013-04-01 23:44:00,
2013-04-01 18:45:00,64.8,44.7,30.06,NW,325,1.0,6.0,48,0.00,,---,0.01,VWS V14.01,2013-04-01 23:45:00,
2013-04-01 18:47:00,64.6,44.5,30.06,NNE,23,1.0,4.0,48,0.00,,---,0.01,VWS V14.01,2013-04-01 23:47:00,
2013-04-01 18:49:00,64.2,44.7,30.06,NNW,346,4.0,4.0,49,0.00,,---,0.01,VWS V14.01,2013-04-01 23:49:00,
2013-04-01 18:50:00,64.1,44.0,30.07,NNE,15,1.0,4.0,48,0.00,,---,0.01,VWS V14.01,2013-04-01 23:50:00,
2013-04-01 18:52:00,63.9,44.4,30.07,NNW,330,1.0,4.0,49,0.00,,---,0.01,VWS V14.01,2013-04-01 23:52:00,
2013-04-01 18:55:00,63.6,44.6,30.07,NW,311,1.0,4.0,50,0.00,,---,0.01,VWS V14.01,2013-04-01 23:55:00,
2013-04-01 18:57:00,63.3,44.4,30.07,NNW,335,1.0,4.0,50,0.00,,---,0.01,VWS V14.01,2013-04-01 23:57:00,
2013-04-01 19:00:00,62.9,44.0,30.07,NNE,24,2.0,5.0,50,0.00,,---,0.01,VWS V14.01,2013-04-02 00:00:00,
2013-04-01 19:02:00,62.7,43.8,30.07,North,11,3.0,4.0,50,0.00,,---,0.01,VWS V14.01,2013-04-02 00:02:00,
2013-04-01 19:05:00,62.5,44.2,30.07,North,10,3.0,4.0,51,0.00,,---,0.01,VWS V14.01,2013-04-02 00:05:00,
2013-04-01 19:06:00,62.4,44.0,30.07,North,352,1.0,4.0,51,0.00,,---,0.01,VWS V14.01,2013-04-02 00:06:00,
2013-04-01 19:07:00,62.3,44.0,30.07,North,359,2.0,4.0,51,0.00,,---,0.01,VWS V14.01,2013-04-02 00:07:00,
2013-04-01 19:10:00,62.1,43.8,30.07,NE,42,2.0,6.0,51,0.00,,---,0.01,VWS V14.01,2013-04-02 00:10:00,
2013-04-01 19:11:00,62.0,43.7,30.07,North,10,3.0,6.0,51,0.00,,---,0.01,VWS V14.01,2013-04-02 00:11:00,
2013-04-01 19:12:00,61.9,43.6,30.07,NNW,332,1.0,6.0,51,0.00,,---,0.01,VWS V14.01,2013-04-02 00:12:00,
2013-04-01 19:15:00,61.5,43.7,30.07,NNW,330,1.0,2.0,52,0.00,,---,0.01,VWS V14.01,2013-04-02 00:15:00,
2013-04-01 19:16:00,61.4,43.6,30.07,North,352,2.0,2.0,52,0.00,,---,0.01,VWS V14.01,2013-04-02 00:16:00,
2013-04-01 19:17:00,61.4,43.6,30.07,North,8,2.0,3.0,52,0.00,,---,0.01,VWS V14.01,2013-04-02 00:17:00,
2013-04-01 19:20:00,61.2,44.0,30.07,NNW,346,0.0,4.0,53,0.00,,---,0.01,VWS V14.01,2013-04-02 00:20:00,
2013-04-01 19:21:00,61.1,43.9,30.07,NW,326,2.0,4.0,53,0.00,,---,0.01,VWS V14.01,2013-04-02 00:21:00,
2013-04-01 19:22:00,61.0,43.8,30.07,North,10,1.0,4.0,53,0.00,,---,0.01,VWS V14.01,2013-04-02 00:22:00,
2013-04-01 19:25:00,60.7,44.0,30.07,North,8,0.0,4.0,54,0.00,,---,0.01,VWS V14.01,2013-04-02 00:25:00,
2013-04-01 19:26:00,60.7,44.0,30.07,North,10,1.0,4.0,54,0.00,,---,0.01,VWS V14.01,2013-04-02 00:26:00,
2013-04-01 19:27:00,60.5,43.8,30.07,North,8,0.0,4.0,54,0.00,,---,0.01,VWS V14.01,2013-04-02 00:27:00,
2013-04-01 19:30:00,60.3,43.1,30.07,North,353,1.0,5.0,53,0.00,,---,0.01,VWS V14.01,2013-04-02 00:30:00,
2013-04-01 19:31:00,60.3,43.6,30.07,North,6,3.0,4.0,54,0.00,,---,0.01,VWS V14.01,2013-04-02 00:31:00,
2013-04-01 19:32:00,60.2,43.0,30.07,North,6,0.0,4.0,53,0.00,,---,0.01,VWS V14.01,2013-04-02 00:32:00,
2013-04-01 19:35:00,59.9,43.2,30.07,NNW,328,2.0,4.0,54,0.00,,---,0.01,VWS V14.01,2013-04-02 00:35:00,
2013-04-01 19:36:00,59.9,43.2,30.07,NNW,328,1.0,4.0,54,0.00,,---,0.01,VWS V14.01,2013-04-02 00:36:00,
2013-04-01 19:37:00,59.8,43.1,30.07,NNW,329,0.0,4.0,54,0.00,,---,0.01,VWS V14.01,2013-04-02 00:37:00,
2013-04-01 19:40:00,59.6,43.0,30.07,NNW,332,1.0,4.0,54,0.00,,---,0.01,VWS V14.01,2013-04-02 00:40:00,
2013-04-01 19:41:00,59.5,43.3,30.07,NNW,332,0.0,4.0,55,0.00,,---,0.01,VWS V14.01,2013-04-02 00:41:00,
2013-04-01 19:42:00,59.5,43.3,30.07,NNW,332,1.0,4.0,55,0.00,,---,0.01,VWS V14.01,2013-04-02 00:42:00,
2013-04-01 19:43:00,59.4,43.2,30.07,North,8,1.0,4.0,55,0.00,,---,0.01,VWS V14.01,2013-04-02 00:43:00,
2013-04-01 19:45:00,59.3,43.2,30.07,North,354,0.0,0.0,55,0.00,,---,0.01,VWS V14.01,2013-04-02 00:45:00,
2013-04-01 19:47:00,59.2,43.1,30.07,North,353,0.0,1.0,55,0.00,,---,0.01,VWS V14.01,2013-04-02 00:47:00,
2013-04-01 19:48:00,59.1,43.0,30.07,North,353,0.0,2.0,55,0.00,,---,0.01,VWS V14.01,2013-04-02 00:48:00,
2013-04-01 19:51:00,59.1,43.0,30.07,NW,321,1.0,3.0,55,0.00,,---,0.01,VWS V14.01,2013-04-02 00:51:00,
2013-04-01 19:52:00,59.0,42.9,30.07,NW,321,0.0,3.0,55,0.00,,---,0.01,VWS V14.01,2013-04-02 00:52:00,
2013-04-01 19:53:00,58.9,42.8,30.07,NW,323,1.0,3.0,55,0.00,,---,0.01,VWS V14.01,2013-04-02 00:53:00,
2013-04-01 19:56:00,58.9,42.8,30.07,NNE,17,0.0,3.0,55,0.00,,---,0.01,VWS V14.01,2013-04-02 00:56:00,
2013-04-01 19:57:00,58.8,43.2,30.07,NNE,16,1.0,3.0,56,0.00,,---,0.01,VWS V14.01,2013-04-02 00:57:00,
2013-04-01 19:58:00,58.8,43.2,30.07,North,359,1.0,3.0,56,0.00,,---,0.01,VWS V14.01,2013-04-02 00:58:00,
2013-04-01 20:02:00,58.6,43.0,30.08,East,80,1.0,3.0,56,0.00,,,0.01,weatherlink.com 1.10,2013-04-02 01:02:00,
2013-04-01 20:03:00,58.5,42.9,30.08,ENE,70,1.0,2.0,56,0.00,,---,0.01,VWS V14.01,2013-04-02 01:03:00,
2013-04-01 20:07:00,58.4,43.2,30.08,NNE,20,0.0,3.0,57,0.00,,---,0.01,VWS V14.01,2013-04-02 01:07:00,
2013-04-01 20:08:00,58.3,43.2,30.08,NNE,15,1.0,3.0,57,0.00,,---,0.01,VWS V14.01,2013-04-02 01:08:00,
2013-04-01 20:12:00,58.2,43.1,30.08,North,3,0.0,3.0,57,0.00,,---,0.01,VWS V14.01,2013-04-02 01:12:00,
2013-04-01 20:13:00,58.1,43.0,30.08,North,3,0.0,3.0,57,0.00,,---,0.01,VWS V14.01,2013-04-02 01:13:00,
2013-04-01 20:17:00,58.0,42.9,30.08,North,360,1.0,2.0,57,0.00,,---,0.01,VWS V14.01,2013-04-02 01:17:00,
2013-04-01 20:18:00,57.9,42.8,30.08,North,354,0.0,2.0,57,0.00,,---,0.01,VWS V14.01,2013-04-02 01:18:00,
2013-04-01 20:22:00,57.8,42.7,30.08,NNE,20,1.0,2.0,57,0.00,,---,0.01,VWS V14.01,2013-04-02 01:22:00,
2013-04-01 20:23:00,57.7,43.0,30.08,NNW,334,1.0,3.0,58,0.00,,---,0.01,VWS V14.01,2013-04-02 01:23:00,
2013-04-01 20:24:00,57.7,43.0,30.09,NNW,333,1.0,3.0,58,0.00,,---,0.01,VWS V14.01,2013-04-02 01:24:00,
2013-04-01 20:27:00,57.6,43.0,30.09,NE,35,0.0,4.0,58,0.00,,---,0.01,VWS V14.01,2013-04-02 01:27:00,
2013-04-01 20:28:00,57.6,43.0,30.09,NNW,346,1.0,4.0,58,0.00,,---,0.01,VWS V14.01,2013-04-02 01:28:00,
2013-04-01 20:29:00,57.6,43.0,30.09,East,93,1.0,4.0,58,0.00,,---,0.01,VWS V14.01,2013-04-02 01:29:00,
2013-04-01 20:32:00,57.4,42.8,30.09,East,93,1.0,1.0,58,0.00,,---,0.01,VWS V14.01,2013-04-02 01:32:00,
2013-04-01 20:33:00,57.4,42.8,30.09,East,94,0.0,1.0,58,0.00,,---,0.01,VWS V14.01,2013-04-02 01:33:00,
2013-04-01 20:34:00,57.4,42.8,30.09,East,94,0.0,1.0,58,0.00,,---,0.01,VWS V14.01,2013-04-02 01:34:00,
2013-04-01 20:37:00,57.3,43.1,30.09,ENE,70,0.0,2.0,59,0.00,,---,0.01,VWS V14.01,2013-04-02 01:37:00,
2013-04-01 20:38:00,57.2,43.0,30.09,East,98,4.0,4.0,59,0.00,,---,0.01,VWS V14.01,2013-04-02 01:38:00,
2013-04-01 20:39:00,57.2,43.0,30.09,ENE,77,2.0,4.0,59,0.00,,---,0.01,VWS V14.01,2013-04-02 01:39:00,
2013-04-01 20:42:00,57.1,42.9,30.09,ENE,65,1.0,4.0,59,0.00,,---,0.01,VWS V14.01,2013-04-02 01:42:00,
2013-04-01 20:43:00,57.1,42.9,30.09,ENE,65,1.0,4.0,59,0.00,,---,0.01,VWS V14.01,2013-04-02 01:43:00,
2013-04-01 20:44:00,57.1,42.9,30.09,ENE,65,0.0,4.0,59,0.00,,---,0.01,VWS V14.01,2013-04-02 01:44:00,
2013-04-01 20:48:00,56.9,42.7,30.09,ENE,60,1.0,1.0,59,0.00,,---,0.01,VWS V14.01,2013-04-02 01:48:00,
2013-04-01 20:49:00,56.9,42.7,30.09,ENE,60,1.0,1.0,59,0.00,,---,0.01,VWS V14.01,2013-04-02 01:49:00,
2013-04-01 20:50:00,56.9,42.7,30.09,ENE,60,0.0,1.0,59,0.00,,---,0.01,VWS V14.01,2013-04-02 01:50:00,
2013-04-01 20:53:00,56.7,43.0,30.10,ENE,60,1.0,1.0,60,0.00,,---,0.01,VWS V14.01,2013-04-02 01:53:00,
2013-04-01 20:54:00,56.6,42.9,30.10,ENE,60,0.0,1.0,60,0.00,,---,0.01,VWS V14.01,2013-04-02 01:54:00,
2013-04-01 20:55:00,56.6,42.9,30.10,ENE,60,0.0,1.0,60,0.00,,---,0.01,VWS V14.01,2013-04-02 01:55:00,
2013-04-01 20:58:00,56.5,42.8,30.10,ENE,60,0.0,1.0,60,0.00,,---,0.01,VWS V14.01,2013-04-02 01:58:00,
2013-04-01 20:59:00,56.4,42.7,30.10,NE,52,0.0,1.0,60,0.00,,---,0.01,VWS V14.01,2013-04-02 01:59:00,
2013-04-01 21:00:00,56.4,42.7,30.10,NE,52,0.0,1.0,60,0.00,,---,0.01,VWS V14.01,2013-04-02 02:00:00,
2013-04-01 21:03:00,56.1,42.8,30.11,NE,53,0.0,0.0,61,0.00,,---,0.01,VWS V14.01,2013-04-02 02:03:00,
2013-04-01 21:04:00,56.1,42.8,30.11,NE,52,0.0,0.0,61,0.00,,---,0.01,VWS V14.01,2013-04-02 02:04:00,
2013-04-01 21:05:00,56.0,42.8,30.11,NE,52,0.0,1.0,61,0.00,,---,0.01,VWS V14.01,2013-04-02 02:05:00,
2013-04-01 21:08:00,55.8,43.0,30.11,NE,52,0.0,1.0,62,0.00,,---,0.01,VWS V14.01,2013-04-02 02:08:00,
2013-04-01 21:09:00,55.8,43.0,30.11,NE,53,0.0,1.0,62,0.00,,---,0.01,VWS V14.01,2013-04-02 02:09:00,
2013-04-01 21:10:00,55.7,42.9,30.11,NE,53,0.0,1.0,62,0.00,,---,0.01,VWS V14.01,2013-04-02 02:10:00,
2013-04-01 21:13:00,55.7,42.9,30.10,NE,52,1.0,1.0,62,0.00,,---,0.01,VWS V14.01,2013-04-02 02:13:00,
2013-04-01 21:14:00,55.7,42.9,30.10,NE,53,1.0,1.0,62,0.00,,---,0.01,VWS V14.01,2013-04-02 02:14:00,
2013-04-01 21:15:00,55.8,43.0,30.10,NE,52,1.0,1.0,62,0.00,,---,0.01,VWS V14.01,2013-04-02 02:15:00,
2013-04-01 21:18:00,55.8,43.0,30.11,East,83,0.0,2.0,62,0.00,,---,0.01,VWS V14.01,2013-04-02 02:18:00,
2013-04-01 21:19:00,55.8,43.0,30.11,East,82,0.0,2.0,62,0.00,,---,0.01,VWS V14.01,2013-04-02 02:19:00,
2013-04-01 21:20:00,55.8,43.0,30.11,East,82,0.0,2.0,62,0.00,,---,0.01,VWS V14.01,2013-04-02 02:20:00,
2013-04-01 21:23:00,55.7,42.9,30.10,East,86,1.0,2.0,62,0.00,,---,0.01,VWS V14.01,2013-04-02 02:23:00,
2013-04-01 21:24:00,55.7,42.9,30.10,East,84,1.0,2.0,62,0.00,,---,0.01,VWS V14.01,2013-04-02 02:24:00,
2013-04-01 21:25:00,55.7,42.9,30.10,ENE,58,1.0,4.0,62,0.00,,---,0.01,VWS V14.01,2013-04-02 02:25:00,
2013-04-01 21:29:00,55.6,42.8,30.10,North,352,1.0,4.0,62,0.00,,---,0.01,VWS V14.01,2013-04-02 02:29:00,
2013-04-01 21:30:00,55.6,42.8,30.10,ENE,60,2.0,4.0,62,0.00,,---,0.01,VWS V14.01,2013-04-02 02:30:00,
2013-04-01 21:34:00,55.6,42.4,30.10,East,83,1.0,6.0,61,0.00,,---,0.01,VWS V14.01,2013-04-02 02:34:00,
2013-04-01 21:35:00,55.7,42.5,30.10,ENE,75,2.0,6.0,61,0.00,,---,0.01,VWS V14.01,2013-04-02 02:35:00,
2013-04-01 21:39:00,55.7,42.5,30.10,East,101,1.0,6.0,61,0.00,,---,0.01,VWS V14.01,2013-04-02 02:39:00,
2013-04-01 21:40:00,55.7,42.5,30.10,East,101,1.0,6.0,61,0.00,,---,0.01,VWS V14.01,2013-04-02 02:40:00,
2013-04-01 21:44:00,55.6,42.4,30.11,East,97,0.0,6.0,61,0.00,,---,0.01,VWS V14.01,2013-04-02 02:44:00,
2013-04-01 21:45:00,55.6,42.4,30.11,East,97,0.0,6.0,61,0.00,,---,0.01,VWS V14.01,2013-04-02 02:45:00,
2013-04-01 21:49:00,55.6,42.4,30.11,East,80,1.0,4.0,61,0.00,,---,0.01,VWS V14.01,2013-04-02 02:49:00,
2013-04-01 21:50:00,55.5,42.3,30.10,East,80,1.0,4.0,61,0.00,,---,0.01,VWS V14.01,2013-04-02 02:50:00,
2013-04-01 21:54:00,55.5,42.3,30.10,East,90,3.0,4.0,61,0.00,,---,0.01,VWS V14.01,2013-04-02 02:54:00,
2013-04-01 21:55:00,55.5,42.3,30.10,ESE,110,1.0,4.0,61,0.00,,---,0.01,VWS V14.01,2013-04-02 02:55:00,
2013-04-01 21:56:00,55.5,42.3,30.09,East,89,2.0,4.0,61,0.00,,---,0.01,VWS V14.01,2013-04-02 02:56:00,
2013-04-01 21:59:00,55.5,42.3,30.09,East,91,4.0,4.0,61,0.00,,---,0.01,VWS V14.01,2013-04-02 02:59:00,
2013-04-01 22:00:00,55.5,42.3,30.09,ENE,78,1.0,4.0,61,0.00,,---,0.01,VWS V14.01,2013-04-02 03:00:00,
2013-04-01 22:02:00,55.5,42.7,30.09,ENE,73,0.0,2.0,62,0.00,,---,0.01,VWS V14.01,2013-04-02 03:02:00,
2013-04-01 22:04:00,55.3,42.5,30.10,North,11,1.0,2.0,62,0.00,,---,0.01,VWS V14.01,2013-04-02 03:04:00,
2013-04-01 22:05:00,55.3,42.5,30.11,North,360,1.0,2.0,62,0.00,,---,0.01,VWS V14.01,2013-04-02 03:05:00,
2013-04-01 22:07:00,55.2,42.4,30.11,North,353,1.0,2.0,62,0.00,,---,0.01,VWS V14.01,2013-04-02 03:07:00,
2013-04-01 22:09:00,55.1,42.3,30.11,NNE,28,1.0,2.0,62,0.00,,---,0.01,VWS V14.01,2013-04-02 03:09:00,
2013-04-01 22:11:00,55.1,42.3,30.12,North,354,0.0,2.0,62,0.00,,---,0.01,VWS V14.01,2013-04-02 03:11:00,
2013-04-01 22:12:00,55.0,42.2,30.12,North,354,0.0,2.0,62,0.00,,---,0.01,VWS V14.01,2013-04-02 03:12:00,
2013-04-01 22:14:00,54.9,42.1,30.12,North,356,0.0,2.0,62,0.00,,---,0.01,VWS V14.01,2013-04-02 03:14:00,
2013-04-01 22:16:00,54.8,42.5,30.12,North,356,0.0,0.0,63,0.00,,---,0.01,VWS V14.01,2013-04-02 03:16:00,
2013-04-01 22:17:00,54.8,42.5,30.12,North,356,0.0,1.0,63,0.00,,---,0.01,VWS V14.01,2013-04-02 03:17:00,
2013-04-01 22:19:00,54.7,42.4,30.12,East,89,0.0,2.0,63,0.00,,---,0.01,VWS V14.01,2013-04-02 03:19:00,
2013-04-01 22:22:00,54.6,42.3,30.11,NNE,31,0.0,3.0,63,0.00,,---,0.01,VWS V14.01,2013-04-02 03:22:00,
2013-04-01 22:24:00,54.6,42.3,30.11,East,82,2.0,3.0,63,0.00,,---,0.01,VWS V14.01,2013-04-02 03:24:00,
2013-04-01 22:27:00,54.6,42.3,30.11,NE,53,1.0,3.0,63,0.00,,---,0.01,VWS V14.01,2013-04-02 03:27:00,
2013-04-01 22:28:00,54.6,42.3,30.11,NE,55,0.0,3.0,63,0.00,,---,0.01,VWS V14.01,2013-04-02 03:28:00,
2013-04-01 22:29:00,54.5,42.6,30.11,NNE,29,1.0,3.0,64,0.00,,---,0.01,VWS V14.01,2013-04-02 03:29:00,
2013-04-01 22:32:00,54.4,42.1,30.11,East,93,2.0,2.0,63,0.00,,---,0.01,VWS V14.01,2013-04-02 03:32:00,
2013-04-01 22:33:00,54.4,42.1,30.11,ESE,105,2.0,3.0,63,0.00,,---,0.01,VWS V14.01,2013-04-02 03:33:00,
2013-04-01 22:35:00,54.4,42.1,30.11,ENE,77,2.0,5.0,63,0.00,,---,0.01,VWS V14.01,2013-04-02 03:35:00,
2013-04-01 22:37:00,54.4,42.1,30.11,SE,127,1.0,5.0,63,0.00,,---,0.01,VWS V14.01,2013-04-02 03:37:00,
2013-04-01 22:38:00,54.5,42.2,30.10,East,80,5.0,7.0,63,0.00,,---,0.01,VWS V14.01,2013-04-02 03:38:00,
2013-04-01 22:40:00,54.5,42.2,30.10,East,87,1.0,7.0,63,0.00,,---,0.01,VWS V14.01,2013-04-02 03:40:00,
2013-04-01 22:42:00,54.5,42.2,30.11,ENE,74,1.0,7.0,63,0.00,,---,0.01,VWS V14.01,2013-04-02 03:42:00,
2013-04-01 22:43:00,54.4,42.1,30.11,ENE,73,2.0,7.0,63,0.00,,---,0.01,VWS V14.01,2013-04-02 03:43:00,
2013-04-01 22:45:00,54.4,42.1,30.10,ENE,67,2.0,7.0,63,0.00,,---,0.01,VWS V14.01,2013-04-02 03:45:00,
2013-04-01 22:47:00,54.3,42.0,30.10,East,82,3.0,5.0,63,0.00,,---,0.01,VWS V14.01,2013-04-02 03:47:00,
2013-04-01 22:48:00,54.3,42.0,30.10,East,96,2.0,5.0,63,0.00,,---,0.01,VWS V14.01,2013-04-02 03:48:00,
2013-04-01 22:50:00,54.3,42.0,30.10,ENE,75,3.0,5.0,63,0.00,,---,0.01,VWS V14.01,2013-04-02 03:50:00,
2013-04-01 22:53:00,54.2,42.3,30.10,East,90,1.0,5.0,64,0.00,,---,0.01,VWS V14.01,2013-04-02 03:53:00,
2013-04-01 22:55:00,54.2,41.9,30.10,NE,44,2.0,6.0,63,0.00,,---,0.01,VWS V14.01,2013-04-02 03:55:00,
2013-04-01 22:58:00,54.1,42.2,30.10,NNE,20,2.0,6.0,64,0.00,,---,0.01,VWS V14.01,2013-04-02 03:58:00,
2013-04-01 23:00:00,54.1,42.2,30.10,NNW,333,1.0,6.0,64,0.00,,---,0.01,VWS V14.01,2013-04-02 04:00:00,
2013-04-01 23:05:00,53.9,42.0,30.10,SSE,147,1.0,3.0,64,0.00,,---,0.01,VWS V14.01,2013-04-02 04:05:00,
2013-04-01 23:10:00,53.8,41.9,30.10,NNW,347,0.0,3.0,64,0.00,,---,0.01,VWS V14.01,2013-04-02 04:10:00,
2013-04-01 23:15:00,53.6,41.7,30.10,ENE,59,1.0,4.0,64,0.00,,---,0.01,VWS V14.01,2013-04-02 04:15:00,
2013-04-01 23:20:00,53.5,42.0,30.09,ESE,103,1.0,4.0,65,0.00,,---,0.01,VWS V14.01,2013-04-02 04:20:00,
2013-04-01 23:25:00,53.4,41.9,30.10,ENE,75,2.0,4.0,65,0.00,,---,0.01,VWS V14.01,2013-04-02 04:25:00,
2013-04-01 23:30:00,53.3,41.8,30.09,East,82,3.0,5.0,65,0.00,,---,0.01,VWS V14.01,2013-04-02 04:30:00,
2013-04-01 23:31:00,53.3,41.5,30.09,East,80,2.0,3.0,64,0.00,,---,0.01,VWS V14.01,2013-04-02 04:31:00,
2013-04-01 23:35:00,53.3,41.8,30.09,East,82,2.0,4.0,65,0.00,,---,0.01,VWS V14.01,2013-04-02 04:35:00,
2013-04-01 23:36:00,53.3,41.8,30.09,East,87,3.0,4.0,65,0.00,,---,0.01,VWS V14.01,2013-04-02 04:36:00,
2013-04-01 23:40:00,53.3,41.8,30.09,ENE,58,6.0,6.0,65,0.00,,---,0.01,VWS V14.01,2013-04-02 04:40:00,
2013-04-01 23:41:00,53.2,41.8,30.09,NNE,32,2.0,6.0,65,0.00,,---,0.01,VWS V14.01,2013-04-02 04:41:00,
2013-04-01 23:45:00,53.3,41.5,30.09,NNE,21,1.0,6.0,64,0.00,,---,0.01,VWS V14.01,2013-04-02 04:45:00,
2013-04-01 23:46:00,53.3,41.5,30.09,North,10,2.0,2.0,64,0.00,,---,0.01,VWS V14.01,2013-04-02 04:46:00,
2013-04-01 23:50:00,53.3,41.5,30.09,ENE,75,5.0,7.0,64,0.00,,---,0.01,VWS V14.01,2013-04-02 04:50:00,
2013-04-01 23:51:00,53.3,41.5,30.08,ENE,58,2.0,7.0,64,0.00,,---,0.01,VWS V14.01,2013-04-02 04:51:00,
2013-04-01 23:56:00,53.3,41.5,30.08,NE,41,3.0,7.0,64,0.00,,---,0.01,VWS V14.01,2013-04-02 04:56:00,